W2GRK-15 Weather Reports


Display with metric or nautical units.
time (UTC)temp
F
wind
direction
speed
MPH
gust
MPH
rain 1hr
in
rain 24hr
in
rain mn
in
humidity
%
barometer
mb
20260506164527 64 197 3.0 4.0 0.07 0.07 0.07 89 1009.3
20260506164422 64 195 3.0 4.0 0.07 0.07 0.07 88 1009.3
20260506164317 64 207 3.0 4.0 0.07 0.07 0.07 88 1009.5
20260506164249 64 185 3.0 4.0 0.07 0.07 0.07 89 1009.5
20260506164124 64 192 2.0 4.0 0.07 0.07 0.07 89 1009.5
20260506164019 64 204 3.0 5.0 0.07 0.07 0.07 88 1009.5
20260506163930 64 189 2.0 3.0 0.07 0.07 0.07 88 1009.5
20260506163826 64 206 4.0 7.0 0.07 0.07 0.07 87 1009.6
20260506163721 64 202 4.0 7.0 0.06 0.06 0.06 88 1009.9
20260506163648 64 205 5.0 6.0 0.06 0.06 0.06 88 1009.8
20260506163628 64 259 2.0 3.0 0.06 0.06 0.06 88 1009.5
20260506163423 64 181 2.0 4.0 0.06 0.06 0.06 88 1009.5
20260506163318 64 169 2.0 4.0 0.06 0.06 0.06 88 1009.6
20260506163249 64 193 3.0 4.0 0.06 0.06 0.06 88 1009.4
20260506163124 65 206 2.0 4.0 0.06 0.06 0.06 87 1009.5
20260506163039 64 185 2.0 3.0 0.06 0.06 0.06 87 1009.7
20260506162931 64 193 3.0 4.0 0.06 0.06 0.06 86 1009.7
20260506162826 65 196 4.0 5.0 0.05 0.05 0.05 86 1009.6
20260506162722 65 183 2.0 3.0 0.05 0.05 0.05 86 1009.5
20260506162617 65 173 2.0 4.0 0.05 0.05 0.05 85 1009.4
20260506162529 65 201 3.0 4.0 0.05 0.05 0.05 85 1009.7
20260506162424 65 200 3.0 5.0 0.04 0.04 0.04 85 1009.7
20260506162339 65 214 3.0 4.0 0.04 0.04 0.04 85 1009.4
20260506162231 65 205 3.0 4.0 0.04 0.04 0.04 85 1009.6
20260506162126 65 174 2.0 4.0 0.04 0.04 0.04 85 1009.8
20260506162022 65 194 3.0 4.0 0.04 0.04 0.04 84 1009.6
20260506161917 65 204 1.0 2.0 0.04 0.04 0.04 84 1009.6
20260506161828 65 199 2.0 4.0 0.04 0.04 0.04 83 1009.8
20260506161723 65 193 3.0 5.0 0.04 0.04 0.04 82 1009.7
20260506161618 66 193 2.0 4.0 0.03 0.03 0.03 82 1009.8
20260506161529 66 192 2.0 4.0 0.03 0.03 0.03 82 1009.8
20260506161424 66 217 2.0 3.0 0.03 0.03 0.03 82 1009.7
20260506161319 66 203 2.0 5.0 0.02 0.02 0.02 81 1010.0
20260506161231 66 213 1.0 4.0 0.02 0.02 0.02 81 1009.9
20260506161125 66 204 3.0 4.0 0.02 0.02 0.02 80 1009.9
20260506161020 67 206 1.0 3.0 0.02 0.02 0.02 79 1009.9
20260506160915 67 182 2.0 4.0 0.02 0.02 0.02 79 1009.8
20260506160827 67 222 3.0 6.0 0.02 0.02 0.02 78 1009.6
20260506160721 67 195 2.0 4.0 0.02 0.02 0.02 78 1009.6
20260506160617 67 235 3.0 4.0 0.01 0.01 0.01 77 1009.6
20260506160528 67 173 2.0 3.0 0.01 0.01 0.01 77 1009.6
20260506160423 67 195 3.0 5.0 0.01 0.01 0.01 76 1009.8
20260506160319 67 206 2.0 4.0 0.01 0.01 0.01 76 1009.8
20260506160230 67 193 3.0 5.0 0.00 0.00 0.00 76 1009.7
20260506160137 68 183 2.0 2.0 0.00 0.00 0.00 77 1010.0
20260506160019 68 186 1.0 2.0 0.00 0.00 0.00 77 1009.7
20260506155951 68 183 2.0 2.0 0.00 0.00 0.00 76 1009.8
20260506155826 68 182 2.0 3.0 0.00 0.00 0.00 76 1009.8
20260506155740 68 190 2.0 3.0 0.00 0.00 0.00 74 1009.8
20260506155631 68 214 1.0 3.0 0.00 0.00 0.00 74 1009.9
20260506155526 68 203 1.0 5.0 0.00 0.00 0.00 73 1010.0
20260506155419 68 220 4.0 5.0 0.00 0.00 0.00 72 1010.0
20260506155335 68 185 3.0 7.0 0.00 0.00 0.00 72 1010.0
20260506155226 68 226 3.0 7.0 0.00 0.00 0.00 71 1009.8
20260506155121 68 201 7.0 11.0 0.00 0.00 0.00 70 1009.7
20260506155017 68 205 6.0 11.0 0.00 0.00 0.00 70 1009.8
20260506154928 69 201 5.0 12.0 0.00 0.00 0.00 69 1009.8
20260506154822 69 285 3.0 4.0 0.00 0.00 0.00 69 1009.6
20260506154717 69 206 4.0 9.0 0.00 0.00 0.00 70 1009.6
20260506154629 69 218 3.0 5.0 0.00 0.00 0.00 70 1009.8
20260506154523 69 224 3.0 8.0 0.00 0.00 0.00 69 1009.8
20260506154419 69 200 3.0 4.0 0.00 0.00 0.00 70 1009.8
20260506154330 69 246 3.0 9.0 0.00 0.00 0.00 69 1009.8
20260506154225 69 193 4.0 7.0 0.00 0.00 0.00 69 1009.9
20260506154120 69 209 3.0 6.0 0.00 0.00 0.00 68 1010.1
20260506154015 69 226 5.0 10.0 0.00 0.00 0.00 68 1010.0
20260506153926 69 191 4.0 7.0 0.00 0.00 0.00 69 1009.9
20260506153821 69 252 4.0 6.0 0.00 0.00 0.00 68 1009.8
20260506153715 69 209 2.0 4.0 0.00 0.00 0.00 68 1010.0
20260506153626 69 211 5.0 13.0 0.00 0.00 0.00 68 1010.0
20260506153521 70 203 5.0 10.0 0.00 0.00 0.00 68 1010.0
20260506153416 70 189 4.0 9.0 0.00 0.00 0.00 68 1009.9
20260506153348 69 215 3.0 8.0 0.00 0.00 0.00 68 1009.9
20260506153224 70 187 5.0 7.0 0.00 0.00 0.00 68 1009.8
20260506153119 70 206 4.0 7.0 0.00 0.00 0.00 68 1009.7
20260506153031 70 200 4.0 8.0 0.00 0.00 0.00 68 1009.6
20260506153005 69 195 3.0 8.0 0.00 0.00 0.00 69 1009.6
20260506152820 69 201 3.0 5.0 0.00 0.00 0.00 68 1009.7
20260506152730 69 237 2.0 6.0 0.00 0.00 0.00 68 1009.7
20260506152625 69 201 4.0 6.0 0.00 0.00 0.00 68 1009.7
20260506152520 69 196 4.0 5.0 0.00 0.00 0.00 68 1009.5
20260506152415 69 192 3.0 6.0 0.00 0.00 0.00 67 1009.7
20260506152347 69 200 5.0 10.0 0.00 0.00 0.00 68 1009.7
20260506152221 69 229 4.0 7.0 0.00 0.00 0.00 68 1009.8
20260506152116 69 192 4.0 6.0 0.00 0.00 0.00 68 1009.8
20260506152027 69 227 3.0 4.0 0.00 0.00 0.00 68 1009.6
20260506151922 69 208 4.0 5.0 0.00 0.00 0.00 68 1009.8
20260506151817 69 204 4.0 6.0 0.00 0.00 0.00 67 1009.7
20260506151728 69 251 2.0 5.0 0.00 0.00 0.00 67 1009.7
20260506151623 69 208 4.0 7.0 0.00 0.00 0.00 67 1009.7
20260506151517 69 247 2.0 3.0 0.00 0.00 0.00 67 1009.9
20260506151429 69 220 3.0 6.0 0.00 0.00 0.00 68 1009.7
20260506151324 69 203 3.0 4.0 0.00 0.00 0.00 68 1009.7
20260506151218 69 272 2.0 4.0 0.00 0.00 0.00 67 1009.7
20260506151149 69 212 6.0 9.0 0.00 0.00 0.00 67 1009.8
20260506151024 69 194 6.0 11.0 0.00 0.00 0.00 68 1009.8
20260506150921 69 204 5.0 7.0 0.00 0.00 0.00 68 1009.9
20260506150911 69 198 5.0 8.0 0.00 0.00 0.00 68 1009.9
20260506150726 69 238 5.0 7.0 0.00 0.00 0.00 68 1009.9
20260506150633 69 199 4.0 7.0 0.00 0.00 0.00 69 1010.1
20260506150515 69 192 4.0 6.0 0.00 0.00 0.00 68 1010.0
20260506150426 69 201 5.0 8.0 0.00 0.00 0.00 68 1009.9
20260506150322 69 218 6.0 13.0 0.00 0.00 0.00 67 1010.0
20260506150216 69 203 6.0 10.0 0.00 0.00 0.00 68 1010.0
20260506150128 69 223 6.0 11.0 0.00 0.00 0.00 66 1010.0
20260506150022 70 248 2.0 8.0 0.00 0.00 0.00 68 1010.2
20260506145936 70 203 7.0 12.0 0.00 0.00 0.00 67 1010.1
20260506145828 70 195 7.0 11.0 0.00 0.00 0.00 66 1009.9
20260506145724 70 204 6.0 11.0 0.00 0.00 0.00 66 1010.0
20260506145618 70 202 3.0 9.0 0.00 0.00 0.00 67 1009.8
20260506145530 70 201 4.0 7.0 0.00 0.00 0.00 66 1009.8
20260506145425 70 222 4.0 7.0 0.00 0.00 0.00 66 1010.0
20260506145321 70 205 3.0 8.0 0.00 0.00 0.00 66 1009.9
20260506145236 70 206 6.0 10.0 0.00 0.00 0.00 66 1009.9
20260506145127 70 205 5.0 6.0 0.00 0.00 0.00 67 1009.8
20260506145022 70 209 3.0 4.0 0.00 0.00 0.00 66 1010.0
20260506144917 70 206 4.0 8.0 0.00 0.00 0.00 67 1009.9
20260506144828 70 211 3.0 6.0 0.00 0.00 0.00 67 1009.8
20260506144723 70 202 2.0 4.0 0.00 0.00 0.00 67 1009.9
20260506144618 70 211 3.0 5.0 0.00 0.00 0.00 66 1010.0
20260506144530 70 199 5.0 8.0 0.00 0.00 0.00 66 1009.8
20260506144425 70 203 4.0 6.0 0.00 0.00 0.00 67 1010.0
20260506144320 70 203 5.0 8.0 0.00 0.00 0.00 66 1009.7
20260506144215 70 198 6.0 10.0 0.00 0.00 0.00 66 1009.8
20260506144126 70 215 4.0 11.0 0.00 0.00 0.00 66 1009.9
20260506144041 71 197 6.0 12.0 0.00 0.00 0.00 66 1009.9
20260506143916 71 212 5.0 9.0 0.00 0.00 0.00 66 1009.8
20260506143827 71 202 5.0 6.0 0.00 0.00 0.00 67 1009.7
20260506143722 71 209 5.0 6.0 0.00 0.00 0.00 66 1009.8
20260506143617 70 212 5.0 7.0 0.00 0.00 0.00 66 1010.0
20260506143550 70 220 3.0 5.0 0.00 0.00 0.00 66 1010.0
20260506143423 70 198 6.0 11.0 0.00 0.00 0.00 66 1010.1
20260506143319 70 204 4.0 14.0 0.00 0.00 0.00 67 1010.0
20260506143230 70 188 5.0 7.0 0.00 0.00 0.00 67 1009.9
20260506143125 70 210 3.0 6.0 0.00 0.00 0.00 67 1010.1
20260506143020 70 205 3.0 5.0 0.00 0.00 0.00 67 1010.1
20260506142935 70 204 2.0 5.0 0.00 0.00 0.00 67 1010.0
20260506142827 70 233 4.0 7.0 0.00 0.00 0.00 66 1009.8
20260506142722 70 235 3.0 8.0 0.00 0.00 0.00 67 1009.9
20260506142617 70 204 6.0 11.0 0.00 0.00 0.00 67 1009.8
20260506142528 70 187 4.0 7.0 0.00 0.00 0.00 67 1009.9
20260506142420 70 211 5.0 7.0 0.00 0.00 0.00 68 1009.6
20260506142319 69 223 4.0 10.0 0.00 0.00 0.00 67 1009.6
20260506142230 69 213 5.0 10.0 0.00 0.00 0.00 68 1010.0
20260506142125 69 206 3.0 5.0 0.00 0.00 0.00 68 1009.7
20260506142020 69 199 3.0 5.0 0.00 0.00 0.00 69 1009.9
20260506141931 69 208 3.0 8.0 0.00 0.00 0.00 68 1009.8
20260506141926 69 205 6.0 10.0 0.00 0.00 0.00 68 1009.7
20260506141721 69 192 3.0 4.0 0.00 0.00 0.00 68 1009.8
20260506141615 69 220 3.0 9.0 0.00 0.00 0.00 68 1009.9
20260506141527 69 219 5.0 12.0 0.00 0.00 0.00 68 1009.9
20260506141422 69 208 3.0 5.0 0.00 0.00 0.00 68 1010.0
20260506141316 69 215 4.0 7.0 0.00 0.00 0.00 68 1009.9
20260506141247 69 207 5.0 8.0 0.00 0.00 0.00 68 1010.0
20260506141122 69 200 5.0 9.0 0.00 0.00 0.00 69 1010.0
20260506141017 69 209 5.0 6.0 0.00 0.00 0.00 69 1009.9
20260506140948 69 212 4.0 9.0 0.00 0.00 0.00 68 1010.0
20260506140823 69 233 3.0 5.0 0.00 0.00 0.00 69 1009.9
20260506140718 69 210 5.0 7.0 0.00 0.00 0.00 68 1009.8
20260506140630 69 233 3.0 7.0 0.00 0.00 0.00 69 1009.9
20260506140525 69 197 4.0 7.0 0.00 0.00 0.00 69 1009.7
20260506140420 69 244 3.0 5.0 0.00 0.00 0.00 69 1009.9
20260506140315 69 197 4.0 7.0 0.00 0.00 0.00 69 1009.9
20260506140227 69 203 3.0 6.0 0.00 0.00 0.00 70 1010.0
20260506140142 69 207 6.0 7.0 0.00 0.00 0.00 68 1010.1
20260506140017 69 195 4.0 6.0 0.00 0.00 0.00 69 1009.9
20260506135928 69 195 4.0 8.0 0.00 0.00 0.00 69 1009.8
20260506135843 69 207 4.0 6.0 0.00 0.00 0.00 69 1010.0
20260506135738 69 197 5.0 7.0 0.00 0.00 0.00 69 1009.8
20260506135648 69 213 4.0 7.0 0.00 0.00 0.00 68 1009.8
20260506135524 69 208 6.0 10.0 0.00 0.00 0.00 68 1010.0
20260506135419 69 226 4.0 7.0 0.00 0.00 0.00 69 1009.9
20260506135350 69 194 4.0 6.0 0.00 0.00 0.00 69 1009.8
20260506135226 69 206 3.0 5.0 0.00 0.00 0.00 69 1009.8
20260506135141 69 206 4.0 7.0 0.00 0.00 0.00 69 1009.8
20260506135016 69 192 4.0 7.0 0.00 0.00 0.00 69 1009.9
20260506134927 69 209 5.0 6.0 0.00 0.00 0.00 69 1009.9
20260506134822 69 222 5.0 7.0 0.00 0.00 0.00 68 1009.9
20260506134717 69 202 4.0 6.0 0.00 0.00 0.00 68 1010.0
20260506134628 69 254 3.0 5.0 0.00 0.00 0.00 69 1009.9
20260506134546 69 216 3.0 4.0 0.00 0.00 0.00 69 1010.0
20260506134416 69 216 1.0 3.0 0.00 0.00 0.00 70 1010.2
20260506134327 69 202 1.0 4.0 0.00 0.00 0.00 70 1009.9
20260506134222 69 199 4.0 6.0 0.00 0.00 0.00 69 1010.0
20260506134137 69 229 3.0 5.0 0.00 0.00 0.00 68 1009.9
20260506134049 69 253 2.0 6.0 0.00 0.00 0.00 68 1010.1
20260506133924 69 250 3.0 6.0 0.00 0.00 0.00 69 1010.2
20260506133838 69 253 3.0 9.0 0.00 0.00 0.00 69 1010.1
20260506133729 69 221 5.0 9.0 0.00 0.00 0.00 70 1010.1
20260506133624 69 189 4.0 7.0 0.00 0.00 0.00 70 1010.1
20260506133551 69 229 5.0 8.0 0.00 0.00 0.00 69 1010.0
20260506133430 69 210 6.0 10.0 0.00 0.00 0.00 69 1010.0
20260506133325 69 204 5.0 10.0 0.00 0.00 0.00 70 1010.2
20260506133221 69 202 7.0 9.0 0.00 0.00 0.00 70 1010.2
20260506133116 69 211 3.0 6.0 0.00 0.00 0.00 70 1010.1
20260506133048 69 195 5.0 9.0 0.00 0.00 0.00 70 1010.1
20260506132923 69 202 3.0 7.0 0.00 0.00 0.00 69 1010.2
20260506132817 69 293 2.0 5.0 0.00 0.00 0.00 69 1010.1
20260506132729 69 223 6.0 10.0 0.00 0.00 0.00 69 1010.2
20260506132624 69 256 2.0 5.0 0.00 0.00 0.00 69 1010.0
20260506132519 69 284 2.0 4.0 0.00 0.00 0.00 70 1010.1
20260506132430 68 203 5.0 8.0 0.00 0.00 0.00 69 1010.1
20260506132326 68 211 4.0 8.0 0.00 0.00 0.00 69 1010.1
20260506132241 69 190 5.0 7.0 0.00 0.00 0.00 69 1010.1
20260506132137 68 197 4.0 10.0 0.00 0.00 0.00 70 1010.0
20260506132048 68 231 5.0 9.0 0.00 0.00 0.00 70 1009.9
20260506131924 68 195 6.0 11.0 0.00 0.00 0.00 69 1010.1
20260506131819 69 194 4.0 7.0 0.00 0.00 0.00 70 1010.0
20260506131731 68 210 5.0 7.0 0.00 0.00 0.00 70 1010.1
20260506131626 68 197 5.0 6.0 0.00 0.00 0.00 70 1010.2
20260506131542 68 209 5.0 9.0 0.00 0.00 0.00 70 1010.0
20260506131418 68 185 5.0 11.0 0.00 0.00 0.00 69 1010.2
20260506131329 68 250 1.0 3.0 0.00 0.00 0.00 70 1010.0
20260506131244 68 245 3.0 5.0 0.00 0.00 0.00 69 1010.0
20260506131119 68 221 5.0 7.0 0.00 0.00 0.00 70 1010.1
20260506131031 68 210 5.0 7.0 0.00 0.00 0.00 70 1010.1
20260506130926 68 194 3.0 10.0 0.00 0.00 0.00 70 1010.0
20260506130841 68 197 5.0 6.0 0.00 0.00 0.00 70 1010.0
20260506130716 68 220 6.0 9.0 0.00 0.00 0.00 70 1010.1
20260506130628 68 205 5.0 6.0 0.00 0.00 0.00 70 1010.2
20260506130522 68 267 2.0 6.0 0.00 0.00 0.00 70 1010.0
20260506130417 68 251 4.0 6.0 0.00 0.00 0.00 69 1010.1
20260506130329 68 206 6.0 11.0 0.00 0.00 0.00 70 1009.9
20260506130224 68 200 6.0 11.0 0.00 0.00 0.00 70 1009.9
20260506130120 68 218 4.0 6.0 0.00 0.00 0.00 70 1010.0
20260506130031 68 197 5.0 9.0 0.00 0.00 0.00 70 1009.9
20260506125926 68 209 4.0 7.0 0.00 0.00 0.00 70 1010.0
20260506125821 68 208 3.0 6.0 0.00 0.00 0.00 70 1009.9
20260506125737 68 207 5.0 7.0 0.00 0.00 0.00 70 1009.8
20260506125628 68 205 4.0 6.0 0.00 0.00 0.00 71 1010.0
20260506125523 68 207 3.0 8.0 0.00 0.00 0.00 71 1009.9
20260506125419 68 208 4.0 9.0 0.00 0.00 0.00 70 1009.8
20260506125346 68 209 5.0 9.0 0.00 0.00 0.00 70 1009.8
20260506125121 68 213 5.0 7.0 0.00 0.00 0.00 70 1009.7
20260506125017 68 209 5.0 9.0 0.00 0.00 0.00 71 1009.9
20260506124928 68 206 5.0 8.0 0.00 0.00 0.00 71 1009.8
20260506124824 68 204 5.0 9.0 0.00 0.00 0.00 71 1009.8
20260506124719 68 192 4.0 7.0 0.00 0.00 0.00 71 1009.8
20260506124631 68 199 3.0 5.0 0.00 0.00 0.00 71 1009.9
20260506124527 68 200 4.0 7.0 0.00 0.00 0.00 70 1009.8
20260506124422 68 201 4.0 8.0 0.00 0.00 0.00 71 1009.9
20260506124337 68 204 7.0 11.0 0.00 0.00 0.00 71 1009.8
20260506124249 68 218 5.0 9.0 0.00 0.00 0.00 71 1009.8
20260506124123 68 195 6.0 11.0 0.00 0.00 0.00 70 1009.9
20260506124018 68 218 4.0 9.0 0.00 0.00 0.00 71 1009.9
20260506123949 68 199 4.0 7.0 0.00 0.00 0.00 71 1009.7
20260506123823 68 208 5.0 9.0 0.00 0.00 0.00 71 1009.9
20260506123738 68 199 3.0 4.0 0.00 0.00 0.00 71 1009.9
20260506123630 68 204 3.0 7.0 0.00 0.00 0.00 71 1010.0
20260506123526 68 222 6.0 10.0 0.00 0.00 0.00 72 1009.7
20260506123441 68 194 3.0 6.0 0.00 0.00 0.00 72 1009.9
20260506123317 68 196 5.0 7.0 0.00 0.00 0.00 71 1009.8
20260506123229 68 209 5.0 8.0 0.00 0.00 0.00 71 1010.1
20260506123144 68 209 3.0 7.0 0.00 0.00 0.00 72 1009.6
20260506123020 68 203 3.0 8.0 0.00 0.00 0.00 73 1010.1
20260506122935 67 199 4.0 5.0 0.00 0.00 0.00 72 1009.9
20260506122846 67 200 3.0 6.0 0.00 0.00 0.00 72 1009.6
20260506122722 67 212 3.0 5.0 0.00 0.00 0.00 72 1009.8
20260506122617 67 208 4.0 6.0 0.00 0.00 0.00 73 1010.0
20260506122529 67 207 2.0 3.0 0.00 0.00 0.00 73 1010.2
20260506122424 67 233 5.0 8.0 0.00 0.00 0.00 73 1010.2
20260506122320 67 203 4.0 6.0 0.00 0.00 0.00 74 1009.9
20260506122236 67 200 5.0 6.0 0.00 0.00 0.00 74 1010.0
20260506122127 66 209 3.0 7.0 0.00 0.00 0.00 74 1010.0
20260506122022 66 198 5.0 9.0 0.00 0.00 0.00 74 1009.9
20260506121918 66 265 2.0 3.0 0.00 0.00 0.00 75 1010.0
20260506121829 66 195 3.0 4.0 0.00 0.00 0.00 75 1009.9
20260506121725 66 201 2.0 4.0 0.00 0.00 0.00 75 1010.2
20260506121620 66 220 0.0 2.0 0.00 0.00 0.00 75 1010.2
20260506121556 66 244 3.0 4.0 0.00 0.00 0.00 75 1010.2
20260506121428 66 235 2.0 5.0 0.00 0.00 0.00 75 1010.2
20260506121323 66 210 2.0 5.0 0.00 0.00 0.00 75 1010.2
20260506121219 66 205 3.0 4.0 0.00 0.00 0.00 75 1010.1
20260506121130 66 217 3.0 4.0 0.00 0.00 0.00 75 1010.1
20260506121025 66 183 3.0 4.0 0.00 0.00 0.00 75 1010.2
20260506120921 66 225 2.0 3.0 0.00 0.00 0.00 75 1010.1
20260506120817 66 203 3.0 5.0 0.00 0.00 0.00 75 1010.0
20260506120728 66 184 3.0 4.0 0.00 0.00 0.00 75 1010.1
20260506120624 66 234 2.0 3.0 0.00 0.00 0.00 75 1010.2
20260506120519 66 200 4.0 6.0 0.00 0.00 0.00 75 1010.0
20260506120431 66 205 3.0 6.0 0.00 0.00 0.00 75 1009.9
20260506120326 66 193 4.0 4.0 0.00 0.00 0.00 75 1010.2
20260506120222 66 205 3.0 5.0 0.00 0.00 0.00 75 1010.2
20260506120138 66 205 5.0 6.0 0.00 0.00 0.00 75 1010.2
20260506120029 66 197 4.0 6.0 0.00 0.00 0.00 75 1010.1
20260506115925 66 209 4.0 6.0 0.00 0.00 0.00 75 1010.1
20260506115820 66 188 4.0 7.0 0.00 0.00 0.00 75 1010.2
20260506115716 66 204 3.0 5.0 0.00 0.00 0.00 75 1010.4
20260506115640 66 213 3.0 4.0 0.00 0.00 0.00 75 1010.3
20260506115523 66 235 2.0 3.0 0.00 0.00 0.00 75 1010.4
20260506115418 66 165 2.0 6.0 0.00 0.00 0.00 75 1010.4
20260506115330 66 229 4.0 8.0 0.00 0.00 0.00 75 1010.5
20260506115225 66 207 3.0 5.0 0.00 0.00 0.00 75 1010.3
20260506115121 66 211 6.0 10.0 0.00 0.00 0.00 75 1010.3
20260506115017 66 202 5.0 10.0 0.00 0.00 0.00 75 1010.4
20260506114928 66 199 6.0 8.0 0.00 0.00 0.00 75 1010.3
20260506114824 66 198 6.0 8.0 0.00 0.00 0.00 75 1010.4
20260506114739 66 208 4.0 6.0 0.00 0.00 0.00 75 1010.3
20260506114615 66 204 4.0 8.0 0.00 0.00 0.00 75 1010.3
20260506114527 66 193 5.0 10.0 0.00 0.00 0.00 75 1010.2
20260506114502 66 204 6.0 11.0 0.00 0.00 0.00 74 1010.2
20260506114317 66 207 8.0 14.0 0.00 0.00 0.00 75 1010.3
20260506114229 66 226 3.0 7.0 0.00 0.00 0.00 75 1010.2
20260506114125 66 209 5.0 10.0 0.00 0.00 0.00 75 1010.4
20260506114020 66 206 7.0 11.0 0.00 0.00 0.00 75 1010.2
20260506113916 66 208 7.0 11.0 0.00 0.00 0.00 76 1010.2
20260506113827 66 206 2.0 6.0 0.00 0.00 0.00 76 1010.1
20260506113723 66 198 4.0 9.0 0.00 0.00 0.00 76 1010.2
20260506113619 66 203 4.0 10.0 0.00 0.00 0.00 76 1010.3
20260506113530 66 200 3.0 5.0 0.00 0.00 0.00 76 1010.2
20260506113426 66 231 3.0 4.0 0.00 0.00 0.00 76 1010.2
20260506113322 65 210 3.0 5.0 0.00 0.00 0.00 77 1010.3
20260506113217 65 210 4.0 6.0 0.00 0.00 0.00 77 1010.5
20260506113149 65 215 4.0 6.0 0.00 0.00 0.00 77 1010.5
20260506113044 65 206 7.0 11.0 0.00 0.00 0.00 77 1010.3
20260506112920 65 215 6.0 10.0 0.00 0.00 0.00 77 1010.2
20260506112816 65 205 7.0 11.0 0.00 0.00 0.00 77 1010.3
20260506112727 65 200 5.0 9.0 0.00 0.00 0.00 77 1010.2
20260506112623 65 202 4.0 6.0 0.00 0.00 0.00 77 1010.3
20260506112518 65 202 7.0 12.0 0.00 0.00 0.00 77 1010.2
20260506112430 65 203 3.0 5.0 0.00 0.00 0.00 77 1010.4
20260506112326 65 235 5.0 9.0 0.00 0.00 0.00 77 1010.5
20260506112221 65 271 4.0 8.0 0.00 0.00 0.00 77 1010.4
20260506112117 65 196 3.0 5.0 0.00 0.00 0.00 78 1010.6
20260506112029 65 209 4.0 7.0 0.00 0.00 0.00 78 1010.4
20260506111924 65 198 3.0 5.0 0.00 0.00 0.00 78 1010.5
20260506111820 65 208 5.0 7.0 0.00 0.00 0.00 78 1010.5
20260506111731 65 199 5.0 8.0 0.00 0.00 0.00 78 1010.4
20260506111627 65 192 4.0 6.0 0.00 0.00 0.00 78 1010.2
20260506111522 65 201 3.0 6.0 0.00 0.00 0.00 78 1010.4
20260506111437 65 203 4.0 7.0 0.00 0.00 0.00 78 1010.4
20260506111329 65 203 5.0 8.0 0.00 0.00 0.00 78 1010.5
20260506111225 65 206 6.0 10.0 0.00 0.00 0.00 78 1010.5
20260506111121 65 203 3.0 5.0 0.00 0.00 0.00 78 1010.3
20260506111016 65 193 3.0 4.0 0.00 0.00 0.00 78 1010.4
20260506110928 65 202 1.0 3.0 0.00 0.00 0.00 78 1010.3
20260506110823 65 240 3.0 5.0 0.00 0.00 0.00 78 1010.5
20260506110719 65 201 4.0 8.0 0.00 0.00 0.00 78 1010.2
20260506110630 65 209 4.0 7.0 0.00 0.00 0.00 79 1010.4
20260506110526 64 184 3.0 5.0 0.00 0.00 0.00 78 1010.2
20260506110421 64 196 3.0 4.0 0.00 0.00 0.00 79 1010.1
20260506110317 64 196 3.0 4.0 0.00 0.00 0.00 79 1010.3
20260506110249 64 195 6.0 11.0 0.00 0.00 0.00 78 1010.2
20260506110144 64 196 4.0 10.0 0.00 0.00 0.00 79 1010.2
20260506110040 64 212 6.0 9.0 0.00 0.00 0.00 79 1010.4
20260506105915 64 205 4.0 5.0 0.00 0.00 0.00 79 1010.3
20260506105827 64 202 6.0 12.0 0.00 0.00 0.00 79 1010.4
20260506105743 64 199 4.0 6.0 0.00 0.00 0.00 80 1010.3
20260506105618 64 212 4.0 6.0 0.00 0.00 0.00 80 1010.3
20260506105530 64 211 3.0 4.0 0.00 0.00 0.00 80 1010.2
20260506105425 64 187 3.0 4.0 0.00 0.00 0.00 80 1010.2
20260506105321 64 196 3.0 4.0 0.00 0.00 0.00 80 1010.2
20260506105216 64 202 3.0 4.0 0.00 0.00 0.00 80 1010.2
20260506105128 64 211 3.0 5.0 0.00 0.00 0.00 80 1010.1
20260506105024 64 213 4.0 6.0 0.00 0.00 0.00 80 1010.0
20260506104919 64 180 3.0 11.0 0.00 0.00 0.00 80 1010.1
20260506104831 64 211 3.0 4.0 0.00 0.00 0.00 80 1010.1
20260506104726 64 201 4.0 6.0 0.00 0.00 0.00 80 1010.1
20260506104622 64 198 3.0 5.0 0.00 0.00 0.00 80 1010.2
20260506104537 64 202 3.0 3.0 0.00 0.00 0.00 80 1010.1
20260506104429 64 202 2.0 3.0 0.00 0.00 0.00 80 1010.2
20260506104325 64 205 4.0 6.0 0.00 0.00 0.00 80 1010.0
20260506104221 64 203 3.0 4.0 0.00 0.00 0.00 80 1010.0
20260506104156 64 161 1.0 2.0 0.00 0.00 0.00 80 1010.1
20260506104028 64 197 2.0 5.0 0.00 0.00 0.00 80 1010.1
20260506103923 64 201 4.0 5.0 0.00 0.00 0.00 80 1010.0
20260506103819 64 199 3.0 5.0 0.00 0.00 0.00 80 1010.2
20260506103731 64 201 3.0 4.0 0.00 0.00 0.00 80 1010.1
20260506103626 64 205 4.0 7.0 0.00 0.00 0.00 80 1010.1
20260506103522 64 206 3.0 5.0 0.00 0.00 0.00 80 1010.2
20260506103418 64 196 3.0 4.0 0.00 0.00 0.00 80 1010.2
20260506103329 64 219 3.0 5.0 0.00 0.00 0.00 80 1010.1
20260506103225 64 214 3.0 6.0 0.00 0.00 0.00 80 1010.2
20260506103120 64 204 5.0 6.0 0.00 0.00 0.00 80 1010.2
20260506103036 64 197 4.0 5.0 0.00 0.00 0.00 80 1010.1
20260506102928 64 197 4.0 6.0 0.00 0.00 0.00 80 1010.2
20260506102843 64 198 3.0 4.0 0.00 0.00 0.00 80 1010.4
20260506102719 64 181 2.0 3.0 0.00 0.00 0.00 80 1010.1
20260506102631 64 159 1.0 3.0 0.00 0.00 0.00 80 1010.1
20260506102526 64 194 2.0 3.0 0.00 0.00 0.00 80 1010.2
20260506102422 64 206 3.0 4.0 0.00 0.00 0.00 80 1010.3
20260506102317 64 214 4.0 9.0 0.00 0.00 0.00 80 1010.3
20260506102229 64 207 5.0 9.0 0.00 0.00 0.00 80 1010.0
20260506102125 64 213 2.0 6.0 0.00 0.00 0.00 80 1010.3
20260506102020 64 204 3.0 5.0 0.00 0.00 0.00 80 1010.0
20260506101916 64 237 2.0 3.0 0.00 0.00 0.00 80 1010.1
20260506101848 64 197 3.0 5.0 0.00 0.00 0.00 80 1010.2
20260506101723 64 200 5.0 6.0 0.00 0.00 0.00 80 1010.0
20260506101619 64 202 4.0 5.0 0.00 0.00 0.00 80 1010.2
20260506101531 64 198 3.0 4.0 0.00 0.00 0.00 80 1010.1
20260506101426 64 196 5.0 9.0 0.00 0.00 0.00 80 1010.1
20260506101321 64 208 5.0 8.0 0.00 0.00 0.00 80 1010.1
20260506101309 63 204 5.0 6.0 0.00 0.00 0.00 81 1010.0
20260506101025 64 194 3.0 4.0 0.00 0.00 0.00 81 1010.1
20260506100920 64 190 3.0 4.0 0.00 0.00 0.00 81 1010.0
20260506100836 64 194 3.0 6.0 0.00 0.00 0.00 80 1010.0
20260506100727 64 206 4.0 6.0 0.00 0.00 0.00 80 1009.8
20260506100623 64 201 2.0 4.0 0.00 0.00 0.00 80 1009.8
20260506100519 64 240 3.0 5.0 0.00 0.00 0.00 80 1010.0
20260506100430 64 205 4.0 5.0 0.00 0.00 0.00 81 1009.9
20260506100326 64 206 3.0 4.0 0.00 0.00 0.00 81 1009.9
20260506100221 64 189 1.0 3.0 0.00 0.00 0.00 81 1010.0
20260506100117 64 200 3.0 6.0 0.00 0.00 0.00 81 1009.9
20260506100029 64 201 3.0 5.0 0.00 0.00 0.00 81 1009.9
20260506095924 64 200 2.0 4.0 0.00 0.00 0.00 81 1009.7
20260506095840 64 199 3.0 5.0 0.00 0.00 0.00 81 1009.8
20260506095715 64 196 3.0 5.0 0.00 0.00 0.00 81 1009.9
20260506095627 64 190 3.0 4.0 0.00 0.00 0.00 81 1009.7
20260506095523 64 198 4.0 5.0 0.00 0.00 0.00 81 1009.8
20260506095418 64 190 3.0 5.0 0.00 0.00 0.00 81 1010.0
20260506095330 64 203 3.0 4.0 0.00 0.00 0.00 80 1009.9
20260506095225 64 209 2.0 4.0 0.00 0.00 0.00 80 1010.0
20260506095121 64 209 4.0 6.0 0.00 0.00 0.00 80 1009.8
20260506095017 64 201 4.0 5.0 0.00 0.00 0.00 80 1009.9
20260506094948 64 203 4.0 6.0 0.00 0.00 0.00 80 1009.7
20260506094844 64 194 3.0 5.0 0.00 0.00 0.00 80 1010.0
20260506094720 64 201 4.0 6.0 0.00 0.00 0.00 80 1010.0
20260506094615 64 194 3.0 5.0 0.00 0.00 0.00 80 1010.0
20260506094527 64 199 6.0 8.0 0.00 0.00 0.00 80 1009.9
20260506094422 64 187 3.0 4.0 0.00 0.00 0.00 80 1010.0
20260506094318 64 190 3.0 4.0 0.00 0.00 0.00 80 1010.0
20260506094230 64 204 4.0 7.0 0.00 0.00 0.00 80 1010.0
20260506094125 64 200 5.0 8.0 0.00 0.00 0.00 80 1009.9
20260506094041 64 195 4.0 7.0 0.00 0.00 0.00 80 1009.9
20260506093916 64 201 5.0 8.0 0.00 0.00 0.00 80 1009.8
20260506093828 64 213 5.0 7.0 0.00 0.00 0.00 80 1009.7
20260506093744 64 208 4.0 7.0 0.00 0.00 0.00 80 1009.5
20260506093639 64 225 3.0 6.0 0.00 0.00 0.00 80 1009.8
20260506093531 64 217 2.0 4.0 0.00 0.00 0.00 80 1009.7
20260506093427 64 210 2.0 4.0 0.00 0.00 0.00 80 1009.9
20260506093322 64 200 4.0 8.0 0.00 0.00 0.00 81 1009.7
20260506093218 64 192 4.0 8.0 0.00 0.00 0.00 81 1009.9
20260506093129 64 217 2.0 5.0 0.00 0.00 0.00 81 1009.9
20260506093025 64 214 5.0 6.0 0.00 0.00 0.00 81 1009.9
20260506092920 63 210 4.0 6.0 0.00 0.00 0.00 81 1009.9
20260506092816 63 213 5.0 7.0 0.00 0.00 0.00 81 1010.0
20260506092728 63 214 3.0 5.0 0.00 0.00 0.00 81 1009.9
20260506092643 63 209 3.0 4.0 0.00 0.00 0.00 81 1009.9
20260506092519 63 206 3.0 4.0 0.00 0.00 0.00 81 1009.8
20260506092431 63 188 3.0 4.0 0.00 0.00 0.00 81 1009.8
20260506092326 63 200 2.0 4.0 0.00 0.00 0.00 81 1009.8
20260506092222 63 211 3.0 4.0 0.00 0.00 0.00 81 1010.0
20260506092138 63 217 3.0 5.0 0.00 0.00 0.00 81 1009.7
20260506092029 63 201 5.0 8.0 0.00 0.00 0.00 81 1009.8
20260506091925 63 154 3.0 4.0 0.00 0.00 0.00 81 1009.8
20260506091821 63 191 3.0 5.0 0.00 0.00 0.00 81 1010.0
20260506091716 63 207 3.0 5.0 0.00 0.00 0.00 81 1010.0
20260506091628 63 206 5.0 6.0 0.00 0.00 0.00 81 1009.9
20260506091523 63 216 2.0 4.0 0.00 0.00 0.00 81 1010.1
20260506091419 63 199 3.0 4.0 0.00 0.00 0.00 81 1009.9
20260506091331 63 195 4.0 5.0 0.00 0.00 0.00 81 1010.0
20260506091226 63 202 4.0 5.0 0.00 0.00 0.00 82 1010.0
20260506091122 63 186 3.0 3.0 0.00 0.00 0.00 82 1010.0
20260506091017 63 126 3.0 4.0 0.00 0.00 0.00 82 1010.1
20260506090929 63 232 1.0 3.0 0.00 0.00 0.00 82 1010.2
20260506090825 63 217 3.0 4.0 0.00 0.00 0.00 82 1009.9
20260506090740 63 203 3.0 4.0 0.00 0.00 0.00 81 1010.1
20260506090616 63 206 4.0 5.0 0.00 0.00 0.00 81 1010.3
20260506090527 63 200 4.0 5.0 0.00 0.00 0.00 82 1010.1
20260506090423 63 202 4.0 6.0 0.00 0.00 0.00 82 1009.9
20260506090319 63 201 4.0 5.0 0.00 0.00 0.00 82 1009.9
20260506090231 63 195 2.0 3.0 0.00 0.00 0.00 82 1010.0
20260506090126 63 211 1.0 3.0 0.00 0.00 0.00 82 1010.0
20260506090022 63 208 2.0 4.0 0.00 0.00 0.00 82 1009.9
20260506085918 63 209 3.0 4.0 0.00 0.00 0.00 82 1010.1
20260506085829 63 203 4.0 9.0 0.00 0.00 0.00 81 1010.1
20260506085725 63 200 5.0 9.0 0.00 0.00 0.00 82 1010.2
20260506085621 63 272 3.0 4.0 0.00 0.00 0.00 82 1010.1
20260506085516 63 200 4.0 8.0 0.00 0.00 0.00 82 1010.0
20260506085428 63 221 3.0 5.0 0.00 0.00 0.00 82 1010.1
20260506085324 63 202 3.0 5.0 0.00 0.00 0.00 82 1010.3
20260506085219 63 208 3.0 4.0 0.00 0.00 0.00 82 1010.0
20260506085130 63 198 3.0 4.0 0.00 0.00 0.00 82 1010.0
20260506085026 63 197 2.0 3.0 0.00 0.00 0.00 82 1010.1
20260506084922 63 188 3.0 4.0 0.00 0.00 0.00 82 1010.2
20260506084830 63 196 4.0 6.0 0.00 0.00 0.00 82 1010.2
20260506084625 63 193 4.0 5.0 0.00 0.00 0.00 82 1010.0
20260506084520 63 198 3.0 4.0 0.00 0.00 0.00 82 1010.2
20260506084416 63 210 4.0 6.0 0.00 0.00 0.00 82 1010.1
20260506084328 63 203 4.0 6.0 0.00 0.00 0.00 82 1010.4
20260506084223 63 202 4.0 6.0 0.00 0.00 0.00 82 1010.2
20260506084119 63 211 2.0 5.0 0.00 0.00 0.00 82 1010.2
20260506084031 63 205 3.0 5.0 0.00 0.00 0.00 82 1010.4
20260506083946 63 198 3.0 3.0 0.00 0.00 0.00 83 1010.4
20260506083822 63 173 2.0 4.0 0.00 0.00 0.00 82 1010.1
20260506083717 63 173 1.0 3.0 0.00 0.00 0.00 82 1010.3
20260506083629 63 188 3.0 4.0 0.00 0.00 0.00 82 1010.3
20260506083544 63 194 3.0 4.0 0.00 0.00 0.00 82 1010.3
20260506083420 63 200 4.0 4.0 0.00 0.00 0.00 82 1010.2
20260506083316 63 204 1.0 3.0 0.00 0.00 0.00 82 1010.1
20260506083227 63 207 3.0 4.0 0.00 0.00 0.00 82 1010.2
20260506083123 63 204 2.0 4.0 0.00 0.00 0.00 82 1010.4
20260506083019 63 202 3.0 4.0 0.00 0.00 0.00 82 1010.0
20260506082930 63 207 3.0 4.0 0.00 0.00 0.00 82 1010.2
20260506082826 63 195 3.0 4.0 0.00 0.00 0.00 82 1010.1
20260506082722 63 200 2.0 5.0 0.00 0.00 0.00 82 1010.1
20260506082617 63 199 4.0 5.0 0.00 0.00 0.00 82 1010.1
20260506082529 63 197 4.0 5.0 0.00 0.00 0.00 82 1010.2
20260506082425 63 198 3.0 4.0 0.00 0.00 0.00 82 1010.0
20260506082340 63 196 3.0 4.0 0.00 0.00 0.00 82 1010.3
20260506082216 63 209 2.0 4.0 0.00 0.00 0.00 82 1010.3
20260506082128 63 213 2.0 4.0 0.00 0.00 0.00 82 1010.3
20260506082023 63 221 2.0 4.0 0.00 0.00 0.00 82 1010.4
20260506081919 63 231 1.0 2.0 0.00 0.00 0.00 82 1010.2
20260506081830 63 206 1.0 3.0 0.00 0.00 0.00 81 1010.1
20260506081726 63 228 1.0 3.0 0.00 0.00 0.00 81 1010.4
20260506081622 63 232 2.0 4.0 0.00 0.00 0.00 81 1010.4
20260506081517 63 214 4.0 5.0 0.00 0.00 0.00 81 1010.3
20260506081429 63 206 4.0 5.0 0.00 0.00 0.00 81 1010.2
20260506081325 63 204 3.0 4.0 0.00 0.00 0.00 81 1010.3
20260506081220 63 183 3.0 6.0 0.00 0.00 0.00 81 1010.3
20260506081136 63 195 3.0 6.0 0.00 0.00 0.00 81 1010.2
20260506081027 63 189 3.0 4.0 0.00 0.00 0.00 82 1010.3
20260506080923 63 253 2.0 2.0 0.00 0.00 0.00 82 1010.1
20260506080819 63 208 3.0 5.0 0.00 0.00 0.00 82 1010.2
20260506080730 63 227 3.0 4.0 0.00 0.00 0.00 82 1010.4
20260506080626 63 209 3.0 4.0 0.00 0.00 0.00 82 1010.1
20260506080521 63 181 2.0 4.0 0.00 0.00 0.00 81 1010.1
20260506080437 63 193 3.0 4.0 0.00 0.00 0.00 81 1010.1
20260506080329 63 210 3.0 5.0 0.00 0.00 0.00 81 1010.2
20260506080224 63 186 2.0 4.0 0.00 0.00 0.00 81 1010.2
20260506080120 63 193 3.0 4.0 0.00 0.00 0.00 81 1010.0
20260506073518 64 189 2.0 3.0 0.00 0.00 0.00 79 1010.2
20260506073450 64 188 2.0 5.0 0.00 0.00 0.00 79 1010.4
20260506073326 64 198 3.0 4.0 0.00 0.00 0.00 79 1010.3
20260506073221 64 197 3.0 5.0 0.00 0.00 0.00 79 1010.3
20260506073117 64 222 1.0 3.0 0.00 0.00 0.00 79 1010.3
20260506073029 64 141 2.0 2.0 0.00 0.00 0.00 79 1010.2
20260506072924 64 200 3.0 5.0 0.00 0.00 0.00 79 1010.4
20260506072840 64 202 1.0 3.0 0.00 0.00 0.00 79 1010.3
20260506072716 64 193 2.0 4.0 0.00 0.00 0.00 78 1010.2
20260506072627 64 195 3.0 4.0 0.00 0.00 0.00 78 1010.2
20260506072523 64 201 2.0 4.0 0.00 0.00 0.00 79 1010.3
20260506072419 64 191 3.0 4.0 0.00 0.00 0.00 78 1010.2
20260506072330 64 203 2.0 4.0 0.00 0.00 0.00 78 1010.2
20260506072226 64 203 3.0 4.0 0.00 0.00 0.00 78 1010.3
20260506072121 64 189 2.0 4.0 0.00 0.00 0.00 78 1010.3
20260506072017 64 189 3.0 3.0 0.00 0.00 0.00 78 1010.4
20260506071929 64 180 2.0 4.0 0.00 0.00 0.00 78 1010.2
20260506071824 64 195 2.0 4.0 0.00 0.00 0.00 78 1010.3
20260506071720 64 198 3.0 4.0 0.00 0.00 0.00 78 1010.3
20260506071636 64 195 3.0 4.0 0.00 0.00 0.00 78 1010.3
20260506071527 64 207 2.0 4.0 0.00 0.00 0.00 78 1010.4
20260506071443 64 197 2.0 4.0 0.00 0.00 0.00 78 1010.3
20260506071319 64 193 2.0 3.0 0.00 0.00 0.00 78 1010.3
20260506071230 64 177 1.0 3.0 0.00 0.00 0.00 78 1010.3
20260506071146 64 200 1.0 3.0 0.00 0.00 0.00 78 1010.3
20260506071022 64 219 2.0 3.0 0.00 0.00 0.00 78 1010.3
20260506070917 64 195 2.0 4.0 0.00 0.00 0.00 78 1010.3
20260506070849 64 194 2.0 2.0 0.00 0.00 0.00 77 1010.5
20260506070725 65 192 2.0 3.0 0.00 0.00 0.00 77 1010.3
20260506070620 65 214 0.0 2.0 0.00 0.00 0.00 77 1010.3
20260506070516 65 200 2.0 4.0 0.00 0.00 0.00 76 1010.4
20260506070448 65 207 2.0 3.0 0.00 0.00 0.00 76 1010.5
20260506070323 65 199 2.0 4.0 0.00 0.00 0.00 76 1010.3
20260506070259 65 189 3.0 4.0 0.00 0.00 0.00 76 1010.4
20260506070130 65 199 3.0 4.0 0.00 0.00 0.00 76 1010.4
20260506062449 65 202 3.0 4.0 0.00 0.00 0.00 74 1010.4
20260506062325 65 207 3.0 4.0 0.00 0.00 0.00 74 1010.4
20260506062221 65 240 1.0 3.0 0.00 0.00 0.00 74 1010.6
20260506062116 65 207 4.0 6.0 0.00 0.00 0.00 74 1010.6
20260506062028 65 207 1.0 3.0 0.00 0.00 0.00 74 1010.5
20260506061924 65 201 2.0 3.0 0.00 0.00 0.00 74 1010.4
20260506061819 65 212 2.0 3.0 0.00 0.00 0.00 74 1010.6
20260506061715 65 218 2.0 4.0 0.00 0.00 0.00 74 1010.5
20260506061627 65 191 4.0 6.0 0.00 0.00 0.00 74 1010.5
20260506061522 65 213 3.0 6.0 0.00 0.00 0.00 74 1010.6
20260506061418 65 202 2.0 4.0 0.00 0.00 0.00 74 1010.4
20260506061330 65 200 3.0 5.0 0.00 0.00 0.00 74 1010.4
20260506061225 65 199 3.0 4.0 0.00 0.00 0.00 74 1010.3
20260506061121 65 205 2.0 2.0 0.00 0.00 0.00 74 1010.5
20260506061017 65 200 2.0 4.0 0.00 0.00 0.00 74 1010.5
20260506060928 65 195 2.0 3.0 0.00 0.00 0.00 73 1010.4
20260506060824 65 196 2.0 3.0 0.00 0.00 0.00 73 1010.6
20260506060720 65 197 2.0 3.0 0.00 0.00 0.00 73 1010.4
20260506060615 66 197 3.0 4.0 0.00 0.00 0.00 73 1010.4
20260506060527 66 204 3.0 4.0 0.00 0.00 0.00 73 1010.5
20260506060422 66 195 2.0 4.0 0.00 0.00 0.00 73 1010.4
20260506060318 66 206 4.0 5.0 0.00 0.00 0.00 72 1010.6
20260506060230 66 200 3.0 5.0 0.00 0.00 0.00 72 1010.4
20260506060126 66 199 3.0 4.0 0.00 0.00 0.00 72 1010.3
20260506051324 66 201 4.0 7.0 0.00 0.00 0.00 70 1010.8
20260506051240 66 215 2.0 4.0 0.00 0.00 0.00 69 1010.9
20260506051115 66 242 2.0 4.0 0.00 0.00 0.00 69 1010.9
20260506051107 66 233 2.0 4.0 0.00 0.00 0.00 69 1010.8
20260506050923 66 220 2.0 4.0 0.00 0.00 0.00 69 1011.0
20260506050818 66 214 3.0 6.0 0.00 0.00 0.00 69 1011.0
20260506050730 66 190 2.0 4.0 0.00 0.00 0.00 69 1011.1
20260506050626 66 212 2.0 6.0 0.00 0.00 0.00 69 1011.2
20260506050541 66 205 3.0 6.0 0.00 0.00 0.00 69 1011.1
20260506050417 66 200 3.0 4.0 0.00 0.00 0.00 69 1011.1
20260506050349 66 207 3.0 5.0 0.00 0.00 0.00 69 1011.0
20260506050244 66 198 3.0 5.0 0.00 0.00 0.00 69 1011.0
20260506050120 66 218 2.0 2.0 0.00 0.00 0.00 69 1011.0
20260506045124 67 181 3.0 4.0 0.00 0.00 0.00 68 1010.9
20260506045020 67 198 3.0 4.0 0.00 0.00 0.00 68 1011.2
20260506044916 67 203 3.0 5.0 0.00 0.00 0.00 68 1011.0
20260506044827 67 208 3.0 6.0 0.00 0.00 0.00 68 1010.9
20260506044723 67 202 4.0 6.0 0.00 0.00 0.00 68 1011.0
20260506044638 67 212 4.0 6.0 0.00 0.00 0.00 68 1010.8
20260506044530 67 193 3.0 4.0 0.00 0.00 0.00 68 1010.9
20260506044426 67 209 2.0 4.0 0.00 0.00 0.00 67 1011.0
20260506044341 67 209 2.0 5.0 0.00 0.00 0.00 67 1010.9
20260506044217 67 199 4.0 7.0 0.00 0.00 0.00 67 1011.1
20260506044129 67 208 3.0 6.0 0.00 0.00 0.00 67 1011.0
20260506044024 67 212 2.0 4.0 0.00 0.00 0.00 67 1011.0
20260506043920 67 201 2.0 4.0 0.00 0.00 0.00 67 1011.0
20260506043816 67 196 2.0 4.0 0.00 0.00 0.00 67 1011.1
20260506043727 67 220 2.0 4.0 0.00 0.00 0.00 67 1011.1
20260506043623 67 203 3.0 5.0 0.00 0.00 0.00 67 1011.0
20260506043518 67 188 4.0 5.0 0.00 0.00 0.00 67 1010.9
20260506043430 67 243 4.0 6.0 0.00 0.00 0.00 67 1011.0
20260506043326 67 192 2.0 3.0 0.00 0.00 0.00 67 1011.0
20260506043222 67 185 2.0 4.0 0.00 0.00 0.00 67 1011.0
20260506043137 67 192 5.0 5.0 0.00 0.00 0.00 67 1010.9
20260506043029 67 202 2.0 3.0 0.00 0.00 0.00 67 1010.9
20260506042925 67 211 4.0 6.0 0.00 0.00 0.00 67 1010.9
20260506042820 67 123 1.0 2.0 0.00 0.00 0.00 67 1011.0
20260506042736 67 204 1.0 3.0 0.00 0.00 0.00 67 1011.0
20260506042627 67 201 1.0 3.0 0.00 0.00 0.00 67 1011.0
20260506042523 67 208 3.0 4.0 0.00 0.00 0.00 67 1010.9
20260506042419 67 201 3.0 6.0 0.00 0.00 0.00 66 1010.9
20260506042330 67 203 4.0 6.0 0.00 0.00 0.00 66 1011.0
20260506042226 67 202 2.0 4.0 0.00 0.00 0.00 66 1010.8
20260506042122 67 215 2.0 6.0 0.00 0.00 0.00 66 1010.9
20260506042017 67 203 4.0 7.0 0.00 0.00 0.00 66 1011.1
20260506041929 67 215 3.0 5.0 0.00 0.00 0.00 66 1010.8
20260506041824 67 201 3.0 5.0 0.00 0.00 0.00 66 1010.9
20260506041720 67 198 2.0 4.0 0.00 0.00 0.00 66 1010.7
20260506041616 67 216 3.0 4.0 0.00 0.00 0.00 66 1010.9
20260506041527 67 227 4.0 6.0 0.00 0.00 0.00 65 1010.8
20260506041423 67 206 3.0 11.0 0.00 0.00 0.00 65 1010.9
20260506041319 67 194 4.0 10.0 0.00 0.00 0.00 66 1010.7
20260506041230 67 213 4.0 6.0 0.00 0.00 0.00 66 1010.9
20260506041126 67 208 2.0 5.0 0.00 0.00 0.00 66 1010.8
20260506041021 68 211 4.0 5.0 0.00 0.00 0.00 65 1010.9
20260506040917 68 202 1.0 3.0 0.00 0.00 0.00 65 1011.1
20260506040829 68 220 3.0 6.0 0.00 0.00 0.00 65 1010.9
20260506040724 68 202 4.0 7.0 0.00 0.00 0.00 65 1011.0
20260506040620 68 195 3.0 7.0 0.00 0.00 0.00 65 1010.9
20260506040555 68 206 5.0 7.0 0.00 0.00 0.00 65 1011.0
20260506040427 68 246 4.0 5.0 0.00 0.00 0.00 64 1010.9
20260506040322 68 211 4.0 6.0 0.00 0.00 0.00 64 1011.0
20260506040218 68 223 4.0 6.0 0.00 0.00 0.00 64 1010.9
20260506040130 68 219 3.0 5.0 0.00 0.00 0.00 64 1010.8
20260506040025 68 186 2.0 4.0 0.00 0.00 0.00 64 1010.8
20260506035941 68 209 3.0 8.0 0.00 0.00 0.00 64 1010.9
20260506035817 68 203 6.0 9.0 0.00 0.00 0.00 64 1010.9
20260506035728 68 205 2.0 4.0 0.00 0.00 0.00 64 1011.0
20260506035624 68 208 4.0 6.0 0.00 0.00 0.00 64 1010.8
20260506035520 68 201 8.0 11.0 0.00 0.00 0.00 64 1010.7
20260506035415 68 212 5.0 8.0 0.00 0.00 0.00 64 1010.8
20260506035347 68 196 4.0 7.0 0.00 0.00 0.00 64 1011.0
20260506035223 68 227 4.0 8.0 0.00 0.00 0.00 64 1010.8
20260506035138 68 238 2.0 4.0 0.00 0.00 0.00 64 1010.9
20260506035030 68 204 4.0 6.0 0.00 0.00 0.00 64 1010.8
20260506034926 68 219 5.0 6.0 0.00 0.00 0.00 64 1010.7
20260506034841 68 207 4.0 6.0 0.00 0.00 0.00 64 1010.8
20260506034716 68 217 3.0 5.0 0.00 0.00 0.00 64 1010.7
20260506034628 68 203 3.0 6.0 0.00 0.00 0.00 64 1010.8
20260506034524 68 203 4.0 5.0 0.00 0.00 0.00 64 1010.9
20260506034419 68 215 3.0 5.0 0.00 0.00 0.00 63 1011.1
20260506034331 68 217 2.0 4.0 0.00 0.00 0.00 63 1011.0
20260506034246 68 213 3.0 6.0 0.00 0.00 0.00 63 1010.9
20260506034122 68 211 4.0 4.0 0.00 0.00 0.00 63 1010.9
20260506034018 68 211 3.0 8.0 0.00 0.00 0.00 63 1010.9
20260506033929 68 213 6.0 9.0 0.00 0.00 0.00 63 1010.8
20260506033825 68 208 4.0 8.0 0.00 0.00 0.00 63 1011.1
20260506033720 68 210 3.0 5.0 0.00 0.00 0.00 63 1010.9
20260506033616 68 219 6.0 10.0 0.00 0.00 0.00 63 1010.9
20260506033608 68 208 3.0 6.0 0.00 0.00 0.00 63 1011.1
20260506033443 68 208 4.0 6.0 0.00 0.00 0.00 63 1011.0
20260506033319 68 209 5.0 6.0 0.00 0.00 0.00 62 1010.9
20260506033230 68 204 2.0 5.0 0.00 0.00 0.00 63 1010.9
20260506033126 68 231 3.0 8.0 0.00 0.00 0.00 62 1010.9
20260506033022 68 213 5.0 9.0 0.00 0.00 0.00 63 1010.9
20260506032957 68 213 3.0 5.0 0.00 0.00 0.00 63 1010.7
20260506032829 68 216 4.0 4.0 0.00 0.00 0.00 62 1010.7
20260506032724 68 216 3.0 4.0 0.00 0.00 0.00 62 1010.8
20260506032620 68 204 3.0 6.0 0.00 0.00 0.00 62 1010.9
20260506032516 68 207 4.0 6.0 0.00 0.00 0.00 62 1010.9
20260506032447 69 204 2.0 3.0 0.00 0.00 0.00 62 1010.9
20260506032343 69 195 2.0 4.0 0.00 0.00 0.00 62 1010.9
20260506032218 69 224 5.0 7.0 0.00 0.00 0.00 61 1010.9
20260506032150 69 237 5.0 8.0 0.00 0.00 0.00 62 1010.9
20260506032046 69 230 3.0 6.0 0.00 0.00 0.00 61 1010.6
20260506031921 69 206 4.0 6.0 0.00 0.00 0.00 61 1010.9
20260506031816 69 205 5.0 7.0 0.00 0.00 0.00 61 1010.8
20260506031728 69 236 3.0 6.0 0.00 0.00 0.00 61 1010.9
20260506031624 69 264 2.0 7.0 0.00 0.00 0.00 61 1010.7
20260506031540 69 209 4.0 9.0 0.00 0.00 0.00 61 1010.8
20260506031435 69 203 4.0 6.0 0.00 0.00 0.00 61 1010.8
20260506031327 69 207 5.0 9.0 0.00 0.00 0.00 61 1011.1
20260506031222 69 215 4.0 7.0 0.00 0.00 0.00 61 1010.8
20260506031118 69 204 3.0 5.0 0.00 0.00 0.00 61 1010.8
20260506031050 69 223 3.0 8.0 0.00 0.00 0.00 61 1011.0
20260506030925 69 200 5.0 9.0 0.00 0.00 0.00 61 1010.8
20260506030821 69 215 6.0 9.0 0.00 0.00 0.00 60 1010.9
20260506030717 69 205 4.0 7.0 0.00 0.00 0.00 61 1010.8
20260506030628 69 214 4.0 6.0 0.00 0.00 0.00 60 1010.8
20260506030524 69 211 4.0 8.0 0.00 0.00 0.00 60 1010.7
20260506030420 69 196 5.0 6.0 0.00 0.00 0.00 60 1010.8
20260506030315 69 228 4.0 5.0 0.00 0.00 0.00 60 1010.7
20260506030227 69 216 7.0 12.0 0.00 0.00 0.00 60 1010.9
20260506030123 69 200 5.0 9.0 0.00 0.00 0.00 60 1010.8
20260506030018 69 213 4.0 12.0 0.00 0.00 0.00 59 1010.9
20260506025930 69 201 4.0 13.0 0.00 0.00 0.00 60 1010.7
20260506025825 69 230 4.0 8.0 0.00 0.00 0.00 60 1010.6
20260506025721 69 213 5.0 7.0 0.00 0.00 0.00 60 1010.8
20260506025637 69 210 5.0 7.0 0.00 0.00 0.00 60 1010.8
20260506025549 69 200 3.0 5.0 0.00 0.00 0.00 59 1010.7
20260506025424 69 204 4.0 9.0 0.00 0.00 0.00 59 1010.7
20260506025320 69 197 4.0 7.0 0.00 0.00 0.00 59 1010.8
20260506025215 69 206 3.0 5.0 0.00 0.00 0.00 59 1010.7
20260506025127 69 201 3.0 4.0 0.00 0.00 0.00 59 1010.6
20260506025023 69 208 4.0 7.0 0.00 0.00 0.00 59 1010.8
20260506024918 70 218 4.0 9.0 0.00 0.00 0.00 59 1010.7
20260506024830 70 220 5.0 6.0 0.00 0.00 0.00 59 1010.8
20260506024726 70 199 3.0 7.0 0.00 0.00 0.00 59 1010.8
20260506024641 70 207 3.0 7.0 0.00 0.00 0.00 59 1010.8
20260506024537 69 216 5.0 9.0 0.00 0.00 0.00 59 1010.8
20260506024428 69 208 6.0 12.0 0.00 0.00 0.00 59 1010.7
20260506024324 70 222 4.0 6.0 0.00 0.00 0.00 59 1010.6
20260506024219 70 200 6.0 7.0 0.00 0.00 0.00 59 1010.7
20260506024115 70 208 4.0 8.0 0.00 0.00 0.00 59 1010.9
20260506024027 70 218 3.0 6.0 0.00 0.00 0.00 59 1010.7
20260506023923 70 223 2.0 5.0 0.00 0.00 0.00 59 1010.8
20260506023838 70 208 4.0 6.0 0.00 0.00 0.00 59 1010.8
20260506023730 70 206 3.0 6.0 0.00 0.00 0.00 59 1010.7
20260506023625 70 225 5.0 10.0 0.00 0.00 0.00 58 1010.6
20260506023521 70 202 10.0 11.0 0.00 0.00 0.00 58 1010.8
20260506023417 70 205 4.0 9.0 0.00 0.00 0.00 58 1011.0
20260506023329 70 194 4.0 9.0 0.00 0.00 0.00 58 1010.7
20260506023224 70 213 5.0 6.0 0.00 0.00 0.00 58 1010.8
20260506023120 70 203 6.0 14.0 0.00 0.00 0.00 58 1011.0
20260506023015 70 204 5.0 14.0 0.00 0.00 0.00 58 1010.8
20260506022927 70 201 6.0 10.0 0.00 0.00 0.00 58 1010.8
20260506022823 70 246 5.0 10.0 0.00 0.00 0.00 58 1010.9
20260506022738 70 227 5.0 7.0 0.00 0.00 0.00 58 1010.6
20260506022630 70 215 4.0 6.0 0.00 0.00 0.00 58 1010.7
20260506022546 70 236 4.0 7.0 0.00 0.00 0.00 58 1010.9
20260506022420 70 191 6.0 9.0 0.00 0.00 0.00 58 1010.7
20260506022316 70 206 3.0 6.0 0.00 0.00 0.00 59 1010.7
20260506022248 70 216 3.0 6.0 0.00 0.00 0.00 58 1010.9
20260506022123 70 227 4.0 6.0 0.00 0.00 0.00 58 1010.7
20260506022019 70 207 5.0 7.0 0.00 0.00 0.00 58 1010.7
20260506021931 70 203 5.0 7.0 0.00 0.00 0.00 58 1010.8
20260506021846 70 229 3.0 5.0 0.00 0.00 0.00 58 1010.6
20260506021722 70 202 3.0 6.0 0.00 0.00 0.00 58 1010.8
20260506021617 70 195 2.0 8.0 0.00 0.00 0.00 58 1010.8
20260506021529 70 201 4.0 8.0 0.00 0.00 0.00 58 1010.7
20260506021425 70 218 4.0 8.0 0.00 0.00 0.00 58 1010.7
20260506021320 70 210 3.0 6.0 0.00 0.00 0.00 58 1010.8
20260506021216 70 212 6.0 9.0 0.00 0.00 0.00 57 1010.9
20260506021128 70 219 6.0 10.0 0.00 0.00 0.00 57 1010.8
20260506021023 70 205 6.0 8.0 0.00 0.00 0.00 58 1010.5
20260506020919 70 214 6.0 10.0 0.00 0.00 0.00 57 1010.6
20260506020830 70 214 5.0 7.0 0.00 0.00 0.00 58 1010.8
20260506020726 71 223 3.0 6.0 0.00 0.00 0.00 58 1010.7
20260506020622 71 204 5.0 11.0 0.00 0.00 0.00 57 1010.7
20260506020517 71 240 3.0 4.0 0.00 0.00 0.00 57 1010.6
20260506020429 71 219 4.0 7.0 0.00 0.00 0.00 57 1011.0
20260506020325 71 213 4.0 6.0 0.00 0.00 0.00 57 1010.7
20260506020220 71 252 4.0 6.0 0.00 0.00 0.00 57 1010.5
20260506020116 71 200 5.0 10.0 0.00 0.00 0.00 57 1010.6
20260506020028 71 200 6.0 12.0 0.00 0.00 0.00 57 1010.8
20260506015923 71 201 6.0 13.0 0.00 0.00 0.00 57 1010.8
20260506015819 71 207 4.0 6.0 0.00 0.00 0.00 57 1010.5
20260506015731 71 210 3.0 6.0 0.00 0.00 0.00 57 1010.7
20260506015626 71 218 2.0 7.0 0.00 0.00 0.00 57 1010.7
20260506015542 71 203 7.0 9.0 0.00 0.00 0.00 57 1010.9
20260506015437 71 200 2.0 4.0 0.00 0.00 0.00 57 1010.8
20260506015329 71 196 3.0 6.0 0.00 0.00 0.00 56 1010.8
20260506015225 71 201 5.0 6.0 0.00 0.00 0.00 56 1010.8
20260506015120 71 218 3.0 5.0 0.00 0.00 0.00 56 1010.7
20260506015016 71 200 4.0 6.0 0.00 0.00 0.00 56 1010.9
20260506014927 71 211 2.0 4.0 0.00 0.00 0.00 56 1010.9
20260506014823 71 214 5.0 9.0 0.00 0.00 0.00 56 1010.6
20260506014719 71 223 8.0 11.0 0.00 0.00 0.00 56 1010.5
20260506014631 71 209 4.0 6.0 0.00 0.00 0.00 56 1010.5
20260506014526 71 200 3.0 6.0 0.00 0.00 0.00 56 1010.5
20260506014442 71 209 4.0 7.0 0.00 0.00 0.00 55 1010.5
20260506014317 72 233 3.0 6.0 0.00 0.00 0.00 55 1010.6
20260506014229 72 223 4.0 7.0 0.00 0.00 0.00 55 1010.6
20260506014124 72 222 3.0 5.0 0.00 0.00 0.00 55 1010.7
20260506014020 72 223 3.0 7.0 0.00 0.00 0.00 55 1010.6
20260506013936 72 188 5.0 10.0 0.00 0.00 0.00 54 1010.6
20260506013908 72 210 4.0 6.0 0.00 0.00 0.00 54 1010.7
20260506013723 72 205 3.0 5.0 0.00 0.00 0.00 54 1010.5
20260506013619 72 191 2.0 4.0 0.00 0.00 0.00 54 1010.7
20260506013531 72 212 2.0 4.0 0.00 0.00 0.00 54 1010.6
20260506013426 72 209 5.0 8.0 0.00 0.00 0.00 53 1010.6
20260506013322 72 217 3.0 5.0 0.00 0.00 0.00 53 1010.5
20260506013217 73 198 4.0 6.0 0.00 0.00 0.00 53 1010.5
20260506013129 73 209 5.0 7.0 0.00 0.00 0.00 52 1010.5
20260506013025 73 187 2.0 7.0 0.00 0.00 0.00 52 1010.5
20260506012920 73 211 6.0 7.0 0.00 0.00 0.00 51 1010.5
20260506012836 73 216 8.0 16.0 0.00 0.00 0.00 51 1010.5
20260506012728 73 201 3.0 6.0 0.00 0.00 0.00 50 1010.4
20260506012623 73 207 5.0 8.0 0.00 0.00 0.00 50 1010.5
20260506012539 73 223 4.0 6.0 0.00 0.00 0.00 49 1010.5
20260506012430 74 210 5.0 7.0 0.00 0.00 0.00 50 1010.4
20260506012326 74 239 4.0 7.0 0.00 0.00 0.00 49 1010.4
20260506012222 74 211 8.0 11.0 0.00 0.00 0.00 49 1010.3
20260506012117 74 202 4.0 6.0 0.00 0.00 0.00 48 1010.3
20260506012029 74 209 5.0 9.0 0.00 0.00 0.00 48 1010.4
20260506011945 74 205 4.0 6.0 0.00 0.00 0.00 48 1010.4
20260506011820 74 200 3.0 4.0 0.00 0.00 0.00 48 1010.4
20260506011716 74 204 4.0 4.0 0.00 0.00 0.00 47 1010.2
20260506011627 74 211 7.0 11.0 0.00 0.00 0.00 47 1010.2
20260506011523 74 227 4.0 7.0 0.00 0.00 0.00 47 1010.2
20260506011419 74 221 2.0 3.0 0.00 0.00 0.00 47 1010.0
20260506011331 74 201 3.0 6.0 0.00 0.00 0.00 47 1010.1
20260506011226 74 207 3.0 5.0 0.00 0.00 0.00 46 1010.1
20260506011122 74 194 3.0 5.0 0.00 0.00 0.00 46 1010.3
20260506011017 75 223 3.0 5.0 0.00 0.00 0.00 46 1010.1
20260506010929 75 220 4.0 6.0 0.00 0.00 0.00 46 1010.0
20260506010825 75 226 5.0 9.0 0.00 0.00 0.00 46 1010.1
20260506010720 75 197 5.0 8.0 0.00 0.00 0.00 45 1010.0
20260506010616 75 214 5.0 9.0 0.00 0.00 0.00 46 1010.1
20260506010528 75 217 5.0 8.0 0.00 0.00 0.00 45 1009.9
20260506010423 75 212 3.0 6.0 0.00 0.00 0.00 46 1010.0
20260506010319 75 201 5.0 9.0 0.00 0.00 0.00 45 1010.0
20260506010230 75 212 4.0 6.0 0.00 0.00 0.00 45 1010.0
20260506010126 75 194 3.0 9.0 0.00 0.00 0.00 45 1010.0
20260506010022 75 211 6.0 10.0 0.00 0.00 0.00 44 1010.0
20260506005918 75 248 4.0 5.0 0.00 0.00 0.00 44 1009.7
20260506005849 75 220 2.0 7.0 0.00 0.00 0.00 44 1009.9
20260506005725 75 214 5.0 8.0 0.00 0.00 0.00 44 1009.9
20260506005700 75 220 4.0 6.0 0.00 0.00 0.00 44 1009.9
20260506005516 75 236 3.0 6.0 0.00 0.00 0.00 44 1009.6
20260506005427 75 216 5.0 12.0 0.00 0.00 0.00 43 1009.9
20260506005323 75 233 3.0 5.0 0.00 0.00 0.00 44 1009.9
20260506005219 75 229 3.0 5.0 0.00 0.00 0.00 43 1009.9
20260506005130 75 225 6.0 10.0 0.00 0.00 0.00 43 1009.8
20260506005026 75 207 5.0 7.0 0.00 0.00 0.00 43 1009.9
20260506004921 76 217 3.0 5.0 0.00 0.00 0.00 43 1009.7
20260506004837 76 210 4.0 9.0 0.00 0.00 0.00 43 1009.7
20260506004729 76 213 5.0 7.0 0.00 0.00 0.00 43 1009.9
20260506004645 75 202 5.0 7.0 0.00 0.00 0.00 43 1009.8
20260506004540 75 215 5.0 8.0 0.00 0.00 0.00 43 1009.9
20260506004416 76 223 2.0 4.0 0.00 0.00 0.00 43 1009.8
20260506004327 76 202 3.0 5.0 0.00 0.00 0.00 43 1009.7
20260506004223 76 217 3.0 3.0 0.00 0.00 0.00 43 1009.8
20260506004119 76 210 3.0 4.0 0.00 0.00 0.00 42 1009.6
20260506004050 76 204 4.0 6.0 0.00 0.00 0.00 43 1009.7
20260506003926 76 197 3.0 5.0 0.00 0.00 0.00 43 1009.7
20260506003824 76 223 2.0 4.0 0.00 0.00 0.00 42 1009.8
20260506003717 76 200 3.0 5.0 0.00 0.00 0.00 42 1009.7
20260506003629 76 217 4.0 7.0 0.00 0.00 0.00 42 1009.8
20260506003524 76 206 4.0 7.0 0.00 0.00 0.00 42 1009.8
20260506003420 76 201 3.0 5.0 0.00 0.00 0.00 42 1009.7
20260506003316 76 214 2.0 3.0 0.00 0.00 0.00 42 1009.8
20260506003247 76 223 3.0 4.0 0.00 0.00 0.00 42 1009.7
20260506003143 76 208 6.0 9.0 0.00 0.00 0.00 41 1009.7
20260506003038 76 209 4.0 5.0 0.00 0.00 0.00 41 1009.5
20260506002950 76 219 4.0 6.0 0.00 0.00 0.00 41 1009.5
20260506002825 76 204 4.0 7.0 0.00 0.00 0.00 41 1009.7
20260506002721 77 209 2.0 5.0 0.00 0.00 0.00 42 1009.8
20260506002616 77 212 4.0 5.0 0.00 0.00 0.00 41 1009.7
20260506002528 77 203 5.0 9.0 0.00 0.00 0.00 41 1009.6
20260506002423 77 209 6.0 9.0 0.00 0.00 0.00 41 1009.6
20260506002319 76 200 5.0 9.0 0.00 0.00 0.00 41 1009.7
20260506002231 77 216 4.0 6.0 0.00 0.00 0.00 41 1009.9
20260506002126 77 215 2.0 5.0 0.00 0.00 0.00 42 1009.7
20260506002022 77 225 3.0 8.0 0.00 0.00 0.00 41 1009.7
20260506001918 77 201 4.0 5.0 0.00 0.00 0.00 41 1009.6
20260506001829 77 207 4.0 6.0 0.00 0.00 0.00 41 1009.4
20260506001725 77 209 3.0 5.0 0.00 0.00 0.00 41 1009.5
20260506001620 77 209 4.0 6.0 0.00 0.00 0.00 41 1009.5
20260506001516 77 224 5.0 10.0 0.00 0.00 0.00 41 1009.5
20260506001428 77 208 5.0 10.0 0.00 0.00 0.00 41 1009.5
20260506001323 77 202 5.0 6.0 0.00 0.00 0.00 41 1009.4
20260506001219 77 200 4.0 7.0 0.00 0.00 0.00 41 1009.4
20260506001130 77 241 5.0 7.0 0.00 0.00 0.00 41 1009.4
20260506001026 77 216 5.0 9.0 0.00 0.00 0.00 41 1009.3
20260506000921 77 213 2.0 5.0 0.00 0.00 0.00 41 1009.5
20260506000816 77 207 4.0 6.0 0.00 0.00 0.00 41 1009.4
20260506000748 77 233 5.0 9.0 0.00 0.00 0.00 40 1009.6
20260506000644 77 206 6.0 7.0 0.00 0.00 0.00 41 1009.4
20260506000520 77 214 5.0 8.0 0.00 0.00 0.00 40 1009.4
20260506000416 77 194 2.0 7.0 0.00 0.00 0.00 41 1009.3
20260506000326 77 218 3.0 4.0 0.00 0.00 0.00 40 1009.5
20260506000222 77 215 4.0 5.0 0.00 0.00 0.00 40 1009.4
20260506000138 78 276 3.0 5.0 0.00 0.00 0.00 40 1009.3
20260506000030 78 231 3.0 5.0 0.00 0.00 0.00 40 1009.3
20260505235925 78 206 4.0 9.0 0.00 0.00 0.00 40 1009.5
20260505235840 78 217 6.0 9.0 0.00 0.00 0.00 39 1009.3
20260505235716 78 217 3.0 5.0 0.00 0.00 0.00 40 1009.2
20260505235648 78 207 4.0 5.0 0.00 0.00 0.00 39 1009.4
20260505235523 78 200 7.0 10.0 0.00 0.00 0.00 39 1009.5
20260505235419 78 213 6.0 9.0 0.00 0.00 0.00 39 1009.2
20260505235331 78 207 4.0 6.0 0.00 0.00 0.00 39 1009.3
20260505235226 78 218 4.0 5.0 0.00 0.00 0.00 39 1009.2
20260505235122 78 230 3.0 10.0 0.00 0.00 0.00 39 1009.3
20260505235017 78 204 8.0 12.0 0.00 0.00 0.00 38 1009.1
20260505234929 78 205 5.0 9.0 0.00 0.00 0.00 38 1009.2
20260505234825 78 209 5.0 11.0 0.00 0.00 0.00 38 1009.4
20260505234720 78 207 8.0 13.0 0.00 0.00 0.00 38 1009.3
20260505234616 78 212 4.0 6.0 0.00 0.00 0.00 38 1009.2
20260505234527 78 210 4.0 7.0 0.00 0.00 0.00 37 1009.2
20260505234443 78 216 2.0 4.0 0.00 0.00 0.00 37 1009.4
20260505234319 79 207 4.0 5.0 0.00 0.00 0.00 37 1009.3
20260505234230 79 230 2.0 5.0 0.00 0.00 0.00 37 1009.2
20260505234126 79 213 3.0 5.0 0.00 0.00 0.00 37 1009.3
20260505234021 79 213 6.0 8.0 0.00 0.00 0.00 36 1009.0
20260505233917 79 220 6.0 9.0 0.00 0.00 0.00 36 1009.2
20260505233829 79 215 5.0 8.0 0.00 0.00 0.00 36 1009.1
20260505233724 79 202 7.0 11.0 0.00 0.00 0.00 36 1009.4
20260505233620 79 215 5.0 5.0 0.00 0.00 0.00 36 1009.1
20260505233516 79 209 3.0 4.0 0.00 0.00 0.00 36 1009.1
20260505233427 79 205 3.0 7.0 0.00 0.00 0.00 35 1009.0
20260505233403 79 217 4.0 7.0 0.00 0.00 0.00 35 1009.1
20260505233219 79 211 4.0 9.0 0.00 0.00 0.00 35 1009.0
20260505233130 79 201 5.0 9.0 0.00 0.00 0.00 35 1009.0
20260505233026 79 211 6.0 16.0 0.00 0.00 0.00 35 1008.9
20260505232941 79 207 9.0 16.0 0.00 0.00 0.00 34 1009.0
20260505232817 79 227 8.0 10.0 0.00 0.00 0.00 35 1008.9
20260505232749 79 207 5.0 9.0 0.00 0.00 0.00 35 1008.8
20260505232624 79 210 3.0 5.0 0.00 0.00 0.00 35 1008.9
20260505232520 79 263 2.0 6.0 0.00 0.00 0.00 35 1009.0
20260505232416 79 230 4.0 6.0 0.00 0.00 0.00 35 1008.9
20260505232327 79 213 4.0 6.0 0.00 0.00 0.00 35 1008.8
20260505232223 79 215 2.0 3.0 0.00 0.00 0.00 34 1008.8
20260505232118 79 204 2.0 4.0 0.00 0.00 0.00 35 1008.9
20260505232030 79 221 1.0 5.0 0.00 0.00 0.00 34 1008.8
20260505231945 80 269 3.0 5.0 0.00 0.00 0.00 34 1008.9
20260505231821 80 216 2.0 5.0 0.00 0.00 0.00 34 1008.9
20260505231717 80 234 2.0 7.0 0.00 0.00 0.00 33 1009.0
20260505231628 80 211 5.0 9.0 0.00 0.00 0.00 33 1008.7
20260505231544 80 243 3.0 9.0 0.00 0.00 0.00 33 1008.9
20260505231439 80 250 4.0 6.0 0.00 0.00 0.00 33 1008.6
20260505231351 80 262 4.0 6.0 0.00 0.00 0.00 34 1008.8
20260505231227 80 233 5.0 8.0 0.00 0.00 0.00 34 1008.7
20260505231142 80 232 3.0 5.0 0.00 0.00 0.00 34 1008.8
20260505231018 80 201 5.0 8.0 0.00 0.00 0.00 34 1008.5
20260505230929 80 230 3.0 6.0 0.00 0.00 0.00 33 1008.7
20260505230845 80 206 3.0 5.0 0.00 0.00 0.00 34 1008.7
20260505230721 80 210 3.0 5.0 0.00 0.00 0.00 33 1008.6
20260505230616 80 201 4.0 7.0 0.00 0.00 0.00 33 1008.6
20260505230528 80 211 2.0 5.0 0.00 0.00 0.00 33 1008.6
20260505230424 80 215 2.0 4.0 0.00 0.00 0.00 33 1008.6
20260505230319 80 223 2.0 5.0 0.00 0.00 0.00 32 1008.8
20260505230251 80 214 6.0 10.0 0.00 0.00 0.00 33 1008.6
20260505230126 80 240 6.0 12.0 0.00 0.00 0.00 32 1008.7
20260505230022 80 221 4.0 5.0 0.00 0.00 0.00 32 1008.6
20260505225917 80 221 2.0 4.0 0.00 0.00 0.00 33 1008.7
20260505225829 80 225 2.0 4.0 0.00 0.00 0.00 33 1008.6
20260505225724 80 261 2.0 6.0 0.00 0.00 0.00 32 1008.6
20260505225620 80 206 4.0 6.0 0.00 0.00 0.00 32 1008.6
20260505225516 80 218 2.0 8.0 0.00 0.00 0.00 32 1008.6
20260505225428 80 253 3.0 8.0 0.00 0.00 0.00 32 1008.4
20260505225323 80 220 4.0 6.0 0.00 0.00 0.00 32 1008.5
20260505225219 80 200 5.0 6.0 0.00 0.00 0.00 32 1008.7
20260505225130 80 225 4.0 7.0 0.00 0.00 0.00 32 1008.5
20260505225026 80 207 5.0 8.0 0.00 0.00 0.00 32 1008.5
20260505224922 80 209 5.0 10.0 0.00 0.00 0.00 32 1008.5
20260505224817 80 208 5.0 9.0 0.00 0.00 0.00 32 1008.6
20260505224729 80 217 6.0 11.0 0.00 0.00 0.00 31 1008.4
20260505224624 80 204 6.0 9.0 0.00 0.00 0.00 31 1008.5
20260505224520 80 206 4.0 9.0 0.00 0.00 0.00 31 1008.4
20260505224435 80 209 6.0 10.0 0.00 0.00 0.00 31 1008.4
20260505224327 80 197 6.0 13.0 0.00 0.00 0.00 31 1008.6
20260505224223 80 199 5.0 9.0 0.00 0.00 0.00 31 1008.6
20260505224119 80 259 4.0 12.0 0.00 0.00 0.00 31 1008.4
20260505224030 80 204 6.0 12.0 0.00 0.00 0.00 31 1008.4
20260505224026 80 216 4.0 8.0 0.00 0.00 0.00 31 1008.5
20260505223821 80 203 7.0 12.0 0.00 0.00 0.00 31 1008.4
20260505223717 80 204 9.0 11.0 0.00 0.00 0.00 31 1008.5
20260505223628 80 221 6.0 11.0 0.00 0.00 0.00 31 1008.6
20260505223524 80 232 6.0 11.0 0.00 0.00 0.00 31 1008.5
20260505223420 80 245 8.0 16.0 0.00 0.00 0.00 30 1008.6
20260505223315 80 201 9.0 13.0 0.00 0.00 0.00 30 1008.5
20260505223227 80 211 8.0 14.0 0.00 0.00 0.00 30 1008.6
20260505223122 80 208 5.0 11.0 0.00 0.00 0.00 31 1008.6
20260505223018 80 232 6.0 9.0 0.00 0.00 0.00 30 1008.6
20260505222950 80 211 10.0 15.0 0.00 0.00 0.00 30 1008.5
20260505222825 80 194 6.0 10.0 0.00 0.00 0.00 30 1008.4
20260505222801 80 204 9.0 14.0 0.00 0.00 0.00 29 1008.5
20260505222637 80 219 6.0 12.0 0.00 0.00 0.00 30 1008.5
20260505222528 80 216 6.0 11.0 0.00 0.00 0.00 29 1008.6
20260505222423 80 207 7.0 11.0 0.00 0.00 0.00 30 1008.4
20260505222319 80 221 7.0 12.0 0.00 0.00 0.00 30 1008.4
20260505222230 80 228 5.0 7.0 0.00 0.00 0.00 29 1008.5
20260505222126 81 226 5.0 8.0 0.00 0.00 0.00 30 1008.6
20260505222021 81 217 5.0 8.0 0.00 0.00 0.00 30 1008.5
20260505221917 81 219 1.0 2.0 0.00 0.00 0.00 30 1008.4
20260505221829 81 211 5.0 11.0 0.00 0.00 0.00 30 1008.5
20260505221724 81 222 6.0 11.0 0.00 0.00 0.00 29 1008.4
20260505221620 81 217 7.0 13.0 0.00 0.00 0.00 29 1008.6
20260505221516 81 212 6.0 14.0 0.00 0.00 0.00 29 1008.5
20260505221427 81 251 5.0 11.0 0.00 0.00 0.00 29 1008.6
20260505221323 81 208 8.0 11.0 0.00 0.00 0.00 30 1008.6
20260505221218 81 222 5.0 8.0 0.00 0.00 0.00 29 1008.4
20260505221130 81 227 5.0 9.0 0.00 0.00 0.00 29 1008.4
20260505221026 81 206 6.0 11.0 0.00 0.00 0.00 29 1008.5
20260505220921 81 234 3.0 6.0 0.00 0.00 0.00 29 1008.5
20260505220817 81 246 4.0 6.0 0.00 0.00 0.00 30 1008.6
20260505220728 81 222 5.0 9.0 0.00 0.00 0.00 30 1008.5
20260505220624 81 242 4.0 8.0 0.00 0.00 0.00 29 1008.5
20260505220520 81 213 4.0 6.0 0.00 0.00 0.00 30 1008.5
20260505220415 82 221 4.0 6.0 0.00 0.00 0.00 30 1008.4
20260505220327 82 203 6.0 10.0 0.00 0.00 0.00 29 1008.3
20260505220303 82 200 7.0 9.0 0.00 0.00 0.00 29 1008.5
20260505220118 82 304 4.0 12.0 0.00 0.00 0.00 28 1008.3
20260505220030 82 203 6.0 11.0 0.00 0.00 0.00 29 1008.3
20260505215925 82 206 5.0 8.0 0.00 0.00 0.00 30 1008.2
20260505215821 82 204 6.0 10.0 0.00 0.00 0.00 29 1008.4
20260505215717 82 227 6.0 13.0 0.00 0.00 0.00 29 1008.4
20260505215629 82 214 5.0 7.0 0.00 0.00 0.00 29 1008.3
20260505215544 82 240 4.0 11.0 0.00 0.00 0.00 29 1008.1
20260505215420 82 237 3.0 6.0 0.00 0.00 0.00 29 1008.3
20260505215315 82 234 6.0 9.0 0.00 0.00 0.00 29 1008.2
20260505215227 82 239 5.0 10.0 0.00 0.00 0.00 28 1008.0
20260505215123 82 211 5.0 8.0 0.00 0.00 0.00 29 1008.0
20260505215018 82 234 3.0 5.0 0.00 0.00 0.00 29 1007.9
20260505214930 82 207 7.0 12.0 0.00 0.00 0.00 29 1008.1
20260505214826 82 206 7.0 15.0 0.00 0.00 0.00 29 1008.0
20260505214721 82 201 8.0 15.0 0.00 0.00 0.00 29 1007.9
20260505214617 82 204 4.0 6.0 0.00 0.00 0.00 29 1008.1
20260505214549 82 225 4.0 9.0 0.00 0.00 0.00 29 1008.0
20260505214424 82 197 8.0 13.0 0.00 0.00 0.00 28 1007.9
20260505214340 82 204 10.0 16.0 0.00 0.00 0.00 29 1008.2
20260505214215 82 214 6.0 15.0 0.00 0.00 0.00 29 1008.2
20260505214127 82 207 7.0 11.0 0.00 0.00 0.00 30 1007.9
20260505214042 82 207 5.0 8.0 0.00 0.00 0.00 29 1008.1
20260505213938 82 215 7.0 15.0 0.00 0.00 0.00 29 1008.0
20260505213830 82 200 9.0 15.0 0.00 0.00 0.00 29 1007.9
20260505213725 82 208 6.0 13.0 0.00 0.00 0.00 29 1008.0
20260505213621 82 191 8.0 13.0 0.00 0.00 0.00 28 1008.0
20260505213517 82 204 4.0 7.0 0.00 0.00 0.00 29 1008.2
20260505213428 82 224 4.0 11.0 0.00 0.00 0.00 29 1008.0
20260505213344 82 230 7.0 12.0 0.00 0.00 0.00 29 1008.0
20260505213219 82 215 9.0 14.0 0.00 0.00 0.00 30 1008.2
20260505213131 82 221 8.0 14.0 0.00 0.00 0.00 30 1008.0
20260505213026 82 216 6.0 12.0 0.00 0.00 0.00 30 1007.9
20260505212922 83 240 5.0 11.0 0.00 0.00 0.00 30 1007.8
20260505212818 83 204 8.0 12.0 0.00 0.00 0.00 30 1007.9
20260505212749 83 213 5.0 10.0 0.00 0.00 0.00 31 1008.0
20260505212625 83 199 5.0 6.0 0.00 0.00 0.00 31 1007.8
20260505212520 83 208 7.0 10.0 0.00 0.00 0.00 30 1008.0
20260505212416 83 212 5.0 7.0 0.00 0.00 0.00 31 1007.9
20260505212328 83 213 3.0 4.0 0.00 0.00 0.00 31 1007.8
20260505212223 83 213 2.0 5.0 0.00 0.00 0.00 31 1007.8
20260505212119 83 211 6.0 8.0 0.00 0.00 0.00 30 1007.8
20260505212031 83 222 6.0 13.0 0.00 0.00 0.00 30 1007.8
20260505211926 83 209 7.0 12.0 0.00 0.00 0.00 30 1007.9
20260505211821 83 218 8.0 13.0 0.00 0.00 0.00 30 1007.7
20260505211716 83 187 4.0 7.0 0.00 0.00 0.00 30 1007.9
20260505211628 83 247 4.0 14.0 0.00 0.00 0.00 30 1007.7
20260505211523 83 215 10.0 14.0 0.00 0.00 0.00 30 1007.9
20260505211418 83 207 11.0 15.0 0.00 0.00 0.00 30 1007.8
20260505211349 83 224 7.0 13.0 0.00 0.00 0.00 30 1007.8
20260505211225 83 204 5.0 8.0 0.00 0.00 0.00 30 1007.7
20260505211120 83 232 7.0 9.0 0.00 0.00 0.00 30 1008.0
20260505211016 83 215 4.0 8.0 0.00 0.00 0.00 31 1007.9
20260505210927 83 221 3.0 8.0 0.00 0.00 0.00 30 1007.9
20260505210843 83 222 6.0 12.0 0.00 0.00 0.00 30 1007.8
20260505210719 83 253 6.0 12.0 0.00 0.00 0.00 30 1007.8
20260505210710 83 218 6.0 8.0 0.00 0.00 0.00 31 1008.0
20260505210526 83 220 6.0 11.0 0.00 0.00 0.00 31 1007.7
20260505210422 83 214 7.0 9.0 0.00 0.00 0.00 32 1007.8
20260505210317 83 209 7.0 11.0 0.00 0.00 0.00 31 1008.1
20260505210229 83 239 5.0 10.0 0.00 0.00 0.00 31 1007.9
20260505210124 83 203 7.0 10.0 0.00 0.00 0.00 31 1007.8
20260505210020 83 210 5.0 10.0 0.00 0.00 0.00 31 1007.7
20260505205916 83 216 9.0 15.0 0.00 0.00 0.00 31 1007.9
20260505205827 83 214 5.0 9.0 0.00 0.00 0.00 32 1007.8
20260505205723 83 208 6.0 11.0 0.00 0.00 0.00 32 1007.7
20260505205618 82 205 5.0 7.0 0.00 0.00 0.00 31 1007.9
20260505205530 82 224 5.0 8.0 0.00 0.00 0.00 32 1007.8
20260505205426 83 206 5.0 11.0 0.00 0.00 0.00 31 1007.8
20260505205321 83 222 8.0 20.0 0.00 0.00 0.00 30 1007.8
20260505205217 83 219 8.0 15.0 0.00 0.00 0.00 30 1007.9
20260505205128 83 211 9.0 15.0 0.00 0.00 0.00 31 1007.7
20260505205024 83 213 10.0 16.0 0.00 0.00 0.00 30 1007.7
20260505204919 83 218 8.0 12.0 0.00 0.00 0.00 31 1007.8
20260505204835 83 217 7.0 12.0 0.00 0.00 0.00 31 1008.0
20260505204727 83 209 8.0 12.0 0.00 0.00 0.00 32 1007.8
20260505204622 83 212 8.0 15.0 0.00 0.00 0.00 31 1007.9
20260505204518 83 273 8.0 9.0 0.00 0.00 0.00 31 1007.7
20260505204429 83 222 5.0 10.0 0.00 0.00 0.00 32 1007.9
20260505204325 83 215 6.0 11.0 0.00 0.00 0.00 32 1007.7
20260505204221 83 206 7.0 9.0 0.00 0.00 0.00 32 1007.8
20260505204116 83 199 5.0 8.0 0.00 0.00 0.00 32 1007.9
20260505204028 83 206 5.0 9.0 0.00 0.00 0.00 32 1007.9
20260505203923 83 207 5.0 6.0 0.00 0.00 0.00 32 1008.0
20260505203819 83 226 4.0 6.0 0.00 0.00 0.00 31 1007.8
20260505203751 83 229 7.0 14.0 0.00 0.00 0.00 31 1007.9
20260505203626 83 204 7.0 15.0 0.00 0.00 0.00 31 1007.9
20260505203602 83 212 8.0 14.0 0.00 0.00 0.00 31 1008.0
20260505203417 84 216 6.0 14.0 0.00 0.00 0.00 31 1007.9
20260505203329 84 203 7.0 12.0 0.00 0.00 0.00 32 1008.0
20260505203225 84 211 6.0 9.0 0.00 0.00 0.00 32 1007.9
20260505203120 84 203 4.0 7.0 0.00 0.00 0.00 32 1007.7
20260505203016 83 222 7.0 8.0 0.00 0.00 0.00 31 1007.8
20260505202928 84 229 7.0 12.0 0.00 0.00 0.00 32 1008.1
20260505202823 84 211 9.0 14.0 0.00 0.00 0.00 32 1007.9
20260505202719 84 213 9.0 15.0 0.00 0.00 0.00 31 1008.0
20260505202630 84 205 7.0 11.0 0.00 0.00 0.00 31 1008.0
20260505202526 84 231 5.0 6.0 0.00 0.00 0.00 31 1008.0
20260505202422 84 253 4.0 6.0 0.00 0.00 0.00 31 1007.9
20260505202317 84 219 3.0 6.0 0.00 0.00 0.00 31 1007.9
20260505202229 84 248 6.0 12.0 0.00 0.00 0.00 30 1007.9
20260505202124 84 216 6.0 10.0 0.00 0.00 0.00 31 1007.7
20260505202020 84 219 7.0 12.0 0.00 0.00 0.00 31 1008.0
20260505201916 85 212 6.0 10.0 0.00 0.00 0.00 31 1008.2
20260505201827 85 236 5.0 9.0 0.00 0.00 0.00 31 1007.8
20260505201723 84 228 2.0 5.0 0.00 0.00 0.00 33 1008.0
20260505201619 84 209 5.0 6.0 0.00 0.00 0.00 33 1007.9
20260505201530 84 258 4.0 6.0 0.00 0.00 0.00 32 1008.0
20260505201426 84 252 3.0 7.0 0.00 0.00 0.00 32 1007.9
20260505201321 84 237 6.0 9.0 0.00 0.00 0.00 31 1008.0
20260505201216 84 227 5.0 8.0 0.00 0.00 0.00 32 1008.0
20260505201128 84 243 4.0 7.0 0.00 0.00 0.00 32 1008.1
20260505201024 84 212 4.0 8.0 0.00 0.00 0.00 33 1008.0
20260505200919 84 220 6.0 10.0 0.00 0.00 0.00 32 1007.9
20260505200815 84 206 6.0 11.0 0.00 0.00 0.00 32 1007.9
20260505200727 84 216 6.0 10.0 0.00 0.00 0.00 33 1008.0
20260505200623 84 227 7.0 10.0 0.00 0.00 0.00 31 1007.9
20260505200518 84 240 5.0 9.0 0.00 0.00 0.00 32 1008.1
20260505200430 84 228 6.0 9.0 0.00 0.00 0.00 32 1007.9
20260505200325 83 233 6.0 11.0 0.00 0.00 0.00 32 1007.9
20260505200241 84 224 8.0 17.0 0.00 0.00 0.00 32 1007.9
20260505200117 84 208 11.0 19.0 0.00 0.00 0.00 33 1008.0
20260505200028 83 224 6.0 10.0 0.00 0.00 0.00 32 1008.0
20260505195924 83 235 7.0 12.0 0.00 0.00 0.00 32 1008.0
20260505195819 83 226 6.0 12.0 0.00 0.00 0.00 31 1008.1
20260505195715 83 231 8.0 15.0 0.00 0.00 0.00 32 1008.1
20260505195707 83 213 8.0 12.0 0.00 0.00 0.00 32 1008.1
20260505195543 83 205 9.0 11.0 0.00 0.00 0.00 31 1008.0
20260505195418 84 205 9.0 15.0 0.00 0.00 0.00 31 1008.2
20260505195330 84 206 11.0 16.0 0.00 0.00 0.00 31 1008.1
20260505195245 84 220 6.0 9.0 0.00 0.00 0.00 32 1008.1
20260505195121 84 223 7.0 12.0 0.00 0.00 0.00 31 1008.3
20260505195017 84 204 9.0 17.0 0.00 0.00 0.00 32 1008.2
20260505194948 84 203 10.0 17.0 0.00 0.00 0.00 31 1008.2
20260505194824 84 204 9.0 13.0 0.00 0.00 0.00 31 1008.2
20260505194719 84 210 7.0 9.0 0.00 0.00 0.00 30 1008.2
20260505194651 85 268 4.0 10.0 0.00 0.00 0.00 32 1008.3
20260505194526 85 228 5.0 10.0 0.00 0.00 0.00 32 1008.4
20260505194422 85 220 3.0 5.0 0.00 0.00 0.00 32 1008.2
20260505194318 85 244 3.0 5.0 0.00 0.00 0.00 33 1008.1
20260505194249 84 216 3.0 5.0 0.00 0.00 0.00 33 1008.3
20260505194205 84 216 4.0 5.0 0.00 0.00 0.00 32 1008.4
20260505194020 84 219 5.0 9.0 0.00 0.00 0.00 33 1008.4
20260505193916 84 236 6.0 9.0 0.00 0.00 0.00 32 1008.3
20260505193828 84 233 4.0 11.0 0.00 0.00 0.00 32 1008.2
20260505193723 84 206 8.0 16.0 0.00 0.00 0.00 32 1008.3
20260505193619 84 201 10.0 13.0 0.00 0.00 0.00 33 1008.2
20260505193531 84 217 9.0 14.0 0.00 0.00 0.00 32 1008.3
20260505193426 84 218 5.0 9.0 0.00 0.00 0.00 32 1008.4
20260505193322 84 219 8.0 13.0 0.00 0.00 0.00 32 1008.3
20260505193237 84 220 7.0 12.0 0.00 0.00 0.00 34 1008.4
20260505193129 84 202 4.0 5.0 0.00 0.00 0.00 33 1008.2
20260505193025 84 232 4.0 9.0 0.00 0.00 0.00 34 1008.3
20260505192920 84 197 8.0 10.0 0.00 0.00 0.00 32 1008.3
20260505192836 84 229 7.0 11.0 0.00 0.00 0.00 33 1008.3
20260505192727 84 239 7.0 12.0 0.00 0.00 0.00 32 1008.2
20260505192623 84 214 5.0 8.0 0.00 0.00 0.00 34 1008.3
20260505192539 84 214 4.0 6.0 0.00 0.00 0.00 34 1008.3
20260505192430 84 209 5.0 10.0 0.00 0.00 0.00 33 1008.5
20260505192326 84 210 7.0 11.0 0.00 0.00 0.00 33 1008.4
20260505192222 84 206 7.0 10.0 0.00 0.00 0.00 33 1008.4
20260505192117 84 260 5.0 7.0 0.00 0.00 0.00 33 1008.3
20260505192028 84 235 6.0 12.0 0.00 0.00 0.00 33 1008.7
20260505191924 84 207 10.0 14.0 0.00 0.00 0.00 34 1008.6
20260505191820 84 246 5.0 8.0 0.00 0.00 0.00 33 1008.7
20260505191716 84 247 4.0 8.0 0.00 0.00 0.00 33 1008.6
20260505191627 84 222 6.0 8.0 0.00 0.00 0.00 34 1008.7
20260505191523 84 228 3.0 7.0 0.00 0.00 0.00 34 1008.8
20260505191418 83 210 6.0 9.0 0.00 0.00 0.00 34 1008.7
20260505191330 83 218 6.0 10.0 0.00 0.00 0.00 34 1008.7
20260505191226 84 210 9.0 12.0 0.00 0.00 0.00 33 1008.8
20260505191121 84 207 7.0 12.0 0.00 0.00 0.00 32 1008.8
20260505191017 84 230 5.0 9.0 0.00 0.00 0.00 33 1008.9
20260505190948 84 216 6.0 10.0 0.00 0.00 0.00 33 1008.9
20260505190824 84 241 5.0 10.0 0.00 0.00 0.00 33 1009.0
20260505190720 84 293 5.0 9.0 0.00 0.00 0.00 33 1009.1
20260505190615 84 221 4.0 8.0 0.00 0.00 0.00 34 1009.0
20260505190527 84 210 7.0 11.0 0.00 0.00 0.00 33 1008.9
20260505190423 84 210 5.0 8.0 0.00 0.00 0.00 34 1009.2
20260505190318 84 217 7.0 13.0 0.00 0.00 0.00 34 1009.1
20260505190230 84 203 8.0 11.0 0.00 0.00 0.00 35 1009.0
20260505190206 84 214 5.0 6.0 0.00 0.00 0.00 36 1008.7
20260505190021 84 232 3.0 5.0 0.00 0.00 0.00 37 1008.8
20260505185917 84 215 3.0 6.0 0.00 0.00 0.00 37 1008.7
20260505185828 83 212 5.0 9.0 0.00 0.00 0.00 35 1008.9
20260505185724 84 209 6.0 9.0 0.00 0.00 0.00 35 1009.0
20260505185619 84 219 6.0 10.0 0.00 0.00 0.00 36 1008.8
20260505185515 84 253 4.0 6.0 0.00 0.00 0.00 36 1008.9
20260505185427 83 213 4.0 6.0 0.00 0.00 0.00 36 1008.9
20260505185322 83 206 5.0 9.0 0.00 0.00 0.00 36 1009.0
20260505185218 83 213 6.0 10.0 0.00 0.00 0.00 35 1008.9
20260505185130 83 215 6.0 10.0 0.00 0.00 0.00 36 1009.0
20260505185025 83 221 5.0 10.0 0.00 0.00 0.00 34 1008.9
20260505185001 83 207 4.0 8.0 0.00 0.00 0.00 35 1009.0
20260505184816 83 202 4.0 6.0 0.00 0.00 0.00 35 1009.2
20260505184728 83 217 4.0 9.0 0.00 0.00 0.00 34 1009.3
20260505184623 83 201 6.0 9.0 0.00 0.00 0.00 35 1009.2
20260505184519 83 202 6.0 8.0 0.00 0.00 0.00 34 1009.2
20260505184451 83 211 5.0 10.0 0.00 0.00 0.00 35 1009.4
20260505184326 83 239 5.0 11.0 0.00 0.00 0.00 34 1009.4
20260505184222 83 230 4.0 9.0 0.00 0.00 0.00 35 1009.4
20260505184117 83 208 6.0 9.0 0.00 0.00 0.00 35 1009.4
20260505184029 83 196 7.0 11.0 0.00 0.00 0.00 34 1009.4
20260505183924 83 211 6.0 13.0 0.00 0.00 0.00 34 1009.3
20260505183900 83 216 7.0 16.0 0.00 0.00 0.00 34 1009.2
20260505183736 84 198 9.0 16.0 0.00 0.00 0.00 34 1009.4
20260505183627 84 212 6.0 11.0 0.00 0.00 0.00 35 1009.5
20260505183523 84 196 6.0 11.0 0.00 0.00 0.00 34 1009.2
20260505183419 83 216 4.0 9.0 0.00 0.00 0.00 36 1009.4
20260505183346 83 213 5.0 12.0 0.00 0.00 0.00 34 1009.2
20260505183122 83 226 6.0 11.0 0.00 0.00 0.00 35 1009.4
20260505183017 83 226 9.0 11.0 0.00 0.00 0.00 34 1009.5
20260505182949 83 204 3.0 6.0 0.00 0.00 0.00 36 1009.5
20260505182844 83 232 5.0 8.0 0.00 0.00 0.00 36 1009.6
20260505182720 83 214 4.0 6.0 0.00 0.00 0.00 37 1009.4
20260505182616 82 229 5.0 9.0 0.00 0.00 0.00 36 1009.2
20260505182527 82 202 7.0 11.0 0.00 0.00 0.00 35 1009.4
20260505182423 82 206 8.0 13.0 0.00 0.00 0.00 36 1009.2
20260505182338 83 225 8.0 13.0 0.00 0.00 0.00 35 1009.6
20260505182230 83 207 9.0 14.0 0.00 0.00 0.00 37 1009.2
20260505182125 83 200 7.0 18.0 0.00 0.00 0.00 36 1009.5
20260505182021 83 201 8.0 14.0 0.00 0.00 0.00 36 1009.3
20260505181917 83 212 7.0 12.0 0.00 0.00 0.00 36 1009.4
20260505181828 83 210 4.0 8.0 0.00 0.00 0.00 37 1009.5
20260505181744 83 219 3.0 5.0 0.00 0.00 0.00 37 1009.4
20260505181620 83 223 4.0 6.0 0.00 0.00 0.00 37 1009.4
20260505181535 83 275 6.0 11.0 0.00 0.00 0.00 37 1009.6
20260505181447 84 199 9.0 16.0 0.00 0.00 0.00 37 1009.5
20260505181322 83 201 6.0 9.0 0.00 0.00 0.00 38 1009.5
20260505181218 83 217 4.0 7.0 0.00 0.00 0.00 37 1009.7
20260505181130 83 237 3.0 5.0 0.00 0.00 0.00 38 1009.4
20260505181045 83 208 5.0 9.0 0.00 0.00 0.00 39 1009.5
20260505180921 83 227 3.0 5.0 0.00 0.00 0.00 38 1009.6
20260505180836 83 218 5.0 9.0 0.00 0.00 0.00 39 1009.5
20260505180728 83 200 5.0 8.0 0.00 0.00 0.00 39 1009.5
20260505180623 83 214 5.0 7.0 0.00 0.00 0.00 39 1009.5
20260505180519 83 224 4.0 4.0 0.00 0.00 0.00 40 1009.5
20260505180431 83 251 5.0 10.0 0.00 0.00 0.00 37 1009.4
20260505180346 82 199 6.0 10.0 0.00 0.00 0.00 40 1009.6
20260505180222 82 211 5.0 7.0 0.00 0.00 0.00 40 1009.4
20260505180117 82 203 7.0 12.0 0.00 0.00 0.00 39 1009.4
20260505180109 82 222 8.0 14.0 0.00 0.00 0.00 38 1009.7
20260505175944 82 196 7.0 10.0 0.00 0.00 0.00 38 1009.6
20260505175820 82 230 5.0 8.0 0.00 0.00 0.00 39 1009.6
20260505175755 82 216 4.0 13.0 0.00 0.00 0.00 39 1009.6
20260505175647 82 205 10.0 13.0 0.00 0.00 0.00 39 1009.7
20260505175523 82 203 4.0 8.0 0.00 0.00 0.00 40 1009.5
20260505175418 82 202 5.0 8.0 0.00 0.00 0.00 39 1009.7
20260505175330 82 213 5.0 8.0 0.00 0.00 0.00 40 1009.6
20260505175226 82 225 4.0 5.0 0.00 0.00 0.00 41 1009.8
20260505175141 82 214 5.0 7.0 0.00 0.00 0.00 41 1009.7
20260505175017 82 212 6.0 9.0 0.00 0.00 0.00 40 1009.8
20260505174929 82 217 5.0 10.0 0.00 0.00 0.00 40 1009.8
20260505174824 82 211 2.0 8.0 0.00 0.00 0.00 40 1009.8
20260505174720 82 205 8.0 10.0 0.00 0.00 0.00 39 1009.8
20260505174615 82 202 4.0 6.0 0.00 0.00 0.00 40 1009.7
20260505174527 82 210 7.0 10.0 0.00 0.00 0.00 40 1009.7
20260505174422 82 211 5.0 11.0 0.00 0.00 0.00 40 1009.6
20260505174318 83 213 6.0 10.0 0.00 0.00 0.00 39 1009.8
20260505174229 83 211 5.0 11.0 0.00 0.00 0.00 39 1009.6
20260505174125 83 210 4.0 6.0 0.00 0.00 0.00 40 1009.9
20260505174021 83 205 4.0 6.0 0.00 0.00 0.00 40 1009.7
20260505173916 83 219 4.0 6.0 0.00 0.00 0.00 41 1009.7
20260505173848 83 210 5.0 7.0 0.00 0.00 0.00 39 1009.7
20260505173723 83 209 5.0 8.0 0.00 0.00 0.00 41 1009.8
20260505173619 83 206 5.0 6.0 0.00 0.00 0.00 43 1009.8
20260505173531 82 230 4.0 5.0 0.00 0.00 0.00 41 1009.7
20260505173426 82 214 4.0 6.0 0.00 0.00 0.00 41 1009.7
20260505173322 82 238 4.0 6.0 0.00 0.00 0.00 41 1009.7
20260505173217 82 216 8.0 10.0 0.00 0.00 0.00 40 1009.7
20260505173129 82 245 4.0 7.0 0.00 0.00 0.00 40 1009.9
20260505173045 82 208 5.0 7.0 0.00 0.00 0.00 41 1009.7
20260505172920 82 219 4.0 7.0 0.00 0.00 0.00 40 1009.8
20260505172816 82 209 4.0 5.0 0.00 0.00 0.00 41 1009.9
20260505172727 82 222 4.0 6.0 0.00 0.00 0.00 42 1009.9
20260505172623 82 231 5.0 9.0 0.00 0.00 0.00 41 1009.8
20260505172518 83 201 6.0 10.0 0.00 0.00 0.00 40 1009.8
20260505172430 83 205 4.0 6.0 0.00 0.00 0.00 40 1009.7
20260505172325 83 212 3.0 6.0 0.00 0.00 0.00 41 1009.8
20260505172221 83 202 3.0 4.0 0.00 0.00 0.00 42 1010.0
20260505172117 82 234 2.0 4.0 0.00 0.00 0.00 40 1010.0
20260505172028 82 230 4.0 6.0 0.00 0.00 0.00 42 1010.0
20260505171924 82 215 3.0 7.0 0.00 0.00 0.00 43 1010.0
20260505171820 82 204 8.0 12.0 0.00 0.00 0.00 41 1010.0
20260505171735 82 210 5.0 7.0 0.00 0.00 0.00 42 1009.9
20260505171627 82 208 5.0 7.0 0.00 0.00 0.00 41 1010.1
20260505171522 82 212 5.0 5.0 0.00 0.00 0.00 43 1009.9
20260505171418 82 202 4.0 5.0 0.00 0.00 0.00 43 1009.8
20260505171329 82 214 4.0 6.0 0.00 0.00 0.00 43 1010.0
20260505171224 82 209 4.0 9.0 0.00 0.00 0.00 41 1009.9
20260505171120 83 204 6.0 7.0 0.00 0.00 0.00 41 1009.9
20260505171016 82 197 4.0 6.0 0.00 0.00 0.00 41 1009.9
20260505170927 82 190 3.0 4.0 0.00 0.00 0.00 40 1009.8
20260505170822 83 201 4.0 7.0 0.00 0.00 0.00 40 1010.0
20260505170718 82 296 3.0 6.0 0.00 0.00 0.00 40 1009.8
20260505170629 82 219 3.0 4.0 0.00 0.00 0.00 40 1009.9
20260505170545 82 210 4.0 6.0 0.00 0.00 0.00 40 1009.9
20260505170500 82 285 3.0 4.0 0.00 0.00 0.00 40 1010.1
20260505170316 82 266 3.0 7.0 0.00 0.00 0.00 40 1010.1
20260505170227 82 250 6.0 9.0 0.00 0.00 0.00 39 1010.1
20260505170123 82 209 6.0 8.0 0.00 0.00 0.00 42 1010.1
20260505170019 82 202 4.0 5.0 0.00 0.00 0.00 42 1010.1
20260505165950 82 208 5.0 9.0 0.00 0.00 0.00 41 1010.0
20260505165826 81 261 4.0 7.0 0.00 0.00 0.00 41 1010.3
20260505165721 81 210 6.0 7.0 0.00 0.00 0.00 40 1010.0
20260505165617 82 205 6.0 9.0 0.00 0.00 0.00 42 1010.1
20260505165529 81 227 3.0 5.0 0.00 0.00 0.00 43 1010.1
20260505165424 81 256 3.0 4.0 0.00 0.00 0.00 42 1010.2
20260505165319 81 199 4.0 9.0 0.00 0.00 0.00 42 1010.2
20260505165215 81 196 3.0 8.0 0.00 0.00 0.00 42 1010.2
20260505165127 81 202 5.0 9.0 0.00 0.00 0.00 42 1010.2
20260505165022 81 190 4.0 5.0 0.00 0.00 0.00 41 1010.3
20260505164918 81 187 4.0 5.0 0.00 0.00 0.00 43 1010.1
20260505164829 81 203 3.0 7.0 0.00 0.00 0.00 42 1010.2
20260505164725 81 212 4.0 6.0 0.00 0.00 0.00 44 1010.2
20260505164620 81 217 4.0 10.0 0.00 0.00 0.00 41 1010.4